Wetterdaten: Montag, 03.07.2023
Datum Zeit Temp. Aussen Temp. o. S. Temp +5cm Feuchte Auss Luftdruck Regen Sonnenschein Regendauer Solar Windben Empfang
03.07.2023 00:00 17,8 C 16,7 C 13,9 C 66 % 1011,6 hPa 0,0 l/m 0 min 0 min 0 W/m 16,1 km/h (3 Bft) 97,87 %
03.07.2023 00:02 17,7 C 16,7 C 13,3 C 65 % 1011,6 hPa 0,0 l/m 0 min 0 min 0 W/m 12,9 km/h (3 Bft) 97,44 %
03.07.2023 00:04 17,7 C 16,7 C 13,3 C 65 % 1011,7 hPa 0,0 l/m 0 min 0 min 0 W/m 22,5 km/h (4 Bft) 97,87 %
03.07.2023 00:08 17,6 C 16,7 C 13,3 C 65 % 1011,6 hPa 0,0 l/m 0 min 0 min 0 W/m 12,9 km/h (3 Bft) 97,94 %
03.07.2023 00:10 17,6 C 16,7 C 13,3 C 65 % 1011,6 hPa 0,0 l/m 0 min 0 min 0 W/m 12,9 km/h (3 Bft) 95,74 %
03.07.2023 00:12 17,5 C 16,1 C 13,3 C 66 % 1011,5 hPa 0,0 l/m 0 min 0 min 0 W/m 12,9 km/h (3 Bft) 95,74 %
03.07.2023 00:14 17,4 C 16,1 C 13,3 C 66 % 1011,5 hPa 0,0 l/m 0 min 0 min 0 W/m 6,4 km/h (2 Bft) 97,87 %
03.07.2023 00:16 17,4 C 16,1 C 13,3 C 66 % 1011,5 hPa 0,0 l/m 0 min 0 min 0 W/m 6,4 km/h (2 Bft) 97,30 %
03.07.2023 00:18 17,3 C 16,1 C 13,3 C 66 % 1011,4 hPa 0,0 l/m 0 min 0 min 0 W/m 16,1 km/h (3 Bft) 95,74 %
03.07.2023 00:20 17,2 C 16,1 C 13,3 C 66 % 1011,4 hPa 0,0 l/m 0 min 0 min 0 W/m 12,9 km/h (3 Bft) 97,87 %
03.07.2023 00:22 17,2 C 16,1 C 12,8 C 66 % 1011,5 hPa 0,0 l/m 0 min 0 min 0 W/m 16,1 km/h (3 Bft) 94,44 %
03.07.2023 00:24 17,2 C 16,1 C 12,8 C 66 % 1011,5 hPa 0,0 l/m 0 min 0 min 0 W/m 16,1 km/h (3 Bft) 97,87 %
03.07.2023 00:26 17,1 C 16,1 C 12,8 C 66 % 1011,5 hPa 0,0 l/m 0 min 0 min 0 W/m 22,5 km/h (4 Bft) 97,87 %
03.07.2023 00:28 17,0 C 16,1 C 12,8 C 66 % 1011,5 hPa 0,0 l/m 0 min 0 min 0 W/m 12,9 km/h (3 Bft) 97,87 %
03.07.2023 00:30 17,0 C 16,1 C 12,8 C 66 % 1011,5 hPa 0,0 l/m 0 min 0 min 0 W/m 12,9 km/h (3 Bft) 97,87 %
03.07.2023 00:32 16,9 C 15,6 C 12,8 C 66 % 1011,5 hPa 0,0 l/m 0 min 0 min 0 W/m 12,9 km/h (3 Bft) 98,00 %
03.07.2023 00:34 16,8 C 15,6 C 12,8 C 67 % 1011,5 hPa 0,0 l/m 0 min 0 min 0 W/m 16,1 km/h (3 Bft) 97,87 %
03.07.2023 00:36 16,8 C 15,6 C 12,8 C 67 % 1011,5 hPa 0,0 l/m 0 min 0 min 0 W/m 12,9 km/h (3 Bft) 97,87 %
03.07.2023 00:38 16,8 C 15,6 C 12,8 C 67 % 1011,5 hPa 0,0 l/m 0 min 0 min 0 W/m 12,9 km/h (3 Bft) 97,87 %
03.07.2023 00:40 16,7 C 15,6 C 12,8 C 67 % 1011,5 hPa 0,0 l/m 0 min 0 min 0 W/m 12,9 km/h (3 Bft) 97,83 %
03.07.2023 00:42 16,7 C 15,6 C 12,8 C 67 % 1011,6 hPa 0,0 l/m 0 min 0 min 0 W/m 16,1 km/h (3 Bft) 100,00 %
03.07.2023 00:44 16,7 C 15,6 C 12,8 C 68 % 1011,6 hPa 0,0 l/m 0 min 0 min 0 W/m 6,4 km/h (2 Bft) 97,87 %
03.07.2023 00:46 16,7 C 15,6 C 12,8 C 68 % 1011,5 hPa 0,0 l/m 0 min 0 min 0 W/m 12,9 km/h (3 Bft) 100,00 %
03.07.2023 00:48 16,6 C 15,6 C 12,8 C 68 % 1011,6 hPa 0,0 l/m 0 min 0 min 0 W/m 9,7 km/h (2 Bft) 100,00 %
03.07.2023 00:50 16,6 C 15,6 C 12,8 C 68 % 1011,5 hPa 0,0 l/m 0 min 0 min 0 W/m 6,4 km/h (2 Bft) 100,00 %
03.07.2023 00:52 16,6 C 15,6 C 12,8 C 68 % 1011,5 hPa 0,0 l/m 0 min 0 min 0 W/m 12,9 km/h (3 Bft) 97,87 %
03.07.2023 00:54 16,5 C 15,6 C 12,2 C 68 % 1011,5 hPa 0,0 l/m 0 min 0 min 0 W/m 12,9 km/h (3 Bft) 97,87 %
03.07.2023 00:56 16,5 C 15,6 C 12,2 C 68 % 1011,5 hPa 0,0 l/m 0 min 0 min 0 W/m 9,7 km/h (2 Bft) 97,87 %
03.07.2023 00:58 16,4 C 15,6 C 12,2 C 68 % 1011,5 hPa 0,0 l/m 0 min 0 min 0 W/m 12,9 km/h (3 Bft) 97,92 %
03.07.2023 01:00 16,4 C 15,0 C 12,2 C 68 % 1011,4 hPa 0,0 l/m 0 min 0 min 0 W/m 6,4 km/h (2 Bft) 97,83 %
03.07.2023 01:02 16,3 C 15,0 C 12,2 C 69 % 1011,5 hPa 0,0 l/m 0 min 0 min 0 W/m 6,4 km/h (2 Bft) 97,87 %
03.07.2023 01:04 16,3 C 15,0 C 12,2 C 69 % 1011,4 hPa 0,0 l/m 0 min 0 min 0 W/m 9,7 km/h (2 Bft) 95,83 %
03.07.2023 01:06 16,3 C 15,0 C 12,2 C 69 % 1011,4 hPa 0,0 l/m 0 min 0 min 0 W/m 6,4 km/h (2 Bft) 93,62 %
03.07.2023 01:08 16,2 C 15,0 C 12,2 C 69 % 1011,4 hPa 0,0 l/m 0 min 0 min 0 W/m 12,9 km/h (3 Bft) 95,65 %
03.07.2023 01:10 16,2 C 15,0 C 12,2 C 69 % 1011,4 hPa 0,0 l/m 0 min 0 min 0 W/m 12,9 km/h (3 Bft) 95,74 %
03.07.2023 01:12 16,1 C 15,0 C 12,2 C 69 % 1011,4 hPa 0,0 l/m 0 min 0 min 0 W/m 6,4 km/h (2 Bft) 95,74 %
03.07.2023 01:14 16,1 C 15,0 C 12,2 C 69 % 1011,5 hPa 0,0 l/m 0 min 0 min 0 W/m 6,4 km/h (2 Bft) 95,74 %
03.07.2023 01:16 16,1 C 15,0 C 12,2 C 69 % 1011,4 hPa 0,0 l/m 0 min 0 min 0 W/m 6,4 km/h (2 Bft) 95,74 %
03.07.2023 01:18 16,0 C 15,0 C 12,2 C 70 % 1011,4 hPa 0,0 l/m 0 min 0 min 0 W/m 3,2 km/h (1 Bft) 93,62 %
03.07.2023 01:20 15,9 C 15,0 C 12,2 C 70 % 1011,4 hPa 0,0 l/m 0 min 0 min 0 W/m 19,3 km/h (3 Bft) 94,74 %
03.07.2023 01:22 15,9 C 15,0 C 11,7 C 70 % 1011,4 hPa 0,0 l/m 0 min 0 min 0 W/m 9,7 km/h (2 Bft) 95,74 %
03.07.2023 01:24 15,9 C 15,0 C 11,7 C 70 % 1011,4 hPa 0,0 l/m 0 min 0 min 0 W/m 6,4 km/h (2 Bft) 97,83 %
03.07.2023 01:26 15,8 C 15,0 C 11,7 C 70 % 1011,4 hPa 0,0 l/m 0 min 0 min 0 W/m 9,7 km/h (2 Bft) 97,87 %
03.07.2023 01:28 15,8 C 15,0 C 11,7 C 70 % 1011,3 hPa 0,0 l/m 0 min 0 min 0 W/m 6,4 km/h (2 Bft) 95,74 %
03.07.2023 01:30 15,7 C 14,4 C 11,7 C 70 % 1011,3 hPa 0,0 l/m 0 min 0 min 0 W/m 6,4 km/h (2 Bft) 97,87 %
03.07.2023 01:32 15,7 C 14,4 C 11,7 C 70 % 1011,3 hPa 0,0 l/m 0 min 0 min 0 W/m 6,4 km/h (2 Bft) 97,87 %
03.07.2023 01:34 15,7 C 15,0 C 11,7 C 71 % 1011,3 hPa 0,0 l/m 0 min 0 min 0 W/m 6,4 km/h (2 Bft) 95,74 %
03.07.2023 01:36 15,7 C 15,0 C 11,7 C 71 % 1011,3 hPa 0,0 l/m 0 min 0 min 0 W/m 12,9 km/h (3 Bft) 97,83 %
03.07.2023 01:38 15,7 C 15,0 C 11,7 C 71 % 1011,3 hPa 0,0 l/m 0 min 0 min 0 W/m 3,2 km/h (1 Bft) 97,87 %
03.07.2023 01:40 15,7 C 15,0 C 11,7 C 71 % 1011,3 hPa 0,0 l/m 0 min 0 min 0 W/m 6,4 km/h (2 Bft) 97,87 %
03.07.2023 01:42 15,7 C 14,4 C 11,7 C 71 % 1011,3 hPa 0,0 l/m 0 min 0 min 0 W/m 6,4 km/h (2 Bft) 97,87 %
03.07.2023 01:44 15,7 C 14,4 C 11,7 C 71 % 1011,3 hPa 0,0 l/m 0 min 0 min 0 W/m 19,3 km/h (3 Bft) 95,83 %
03.07.2023 01:46 15,6 C 14,4 C 11,7 C 71 % 1011,3 hPa 0,0 l/m 0 min 0 min 0 W/m 6,4 km/h (2 Bft) 97,83 %
03.07.2023 01:48 15,6 C 14,4 C 11,7 C 71 % 1011,2 hPa 0,0 l/m 0 min 0 min 0 W/m 12,9 km/h (3 Bft) 95,74 %
03.07.2023 01:50 15,6 C 14,4 C 11,7 C 71 % 1011,3 hPa 0,0 l/m 0 min 0 min 0 W/m 6,4 km/h (2 Bft) 97,73 %
03.07.2023 01:52 15,5 C 14,4 C 11,7 C 71 % 1011,3 hPa 0,0 l/m 0 min 0 min 0 W/m 12,9 km/h (3 Bft) 98,00 %
03.07.2023 01:54 15,4 C 14,4 C 11,7 C 71 % 1011,2 hPa 0,0 l/m 0 min 0 min 0 W/m 9,7 km/h (2 Bft) 97,87 %
03.07.2023 01:56 15,4 C 14,4 C 11,7 C 71 % 1011,3 hPa 0,0 l/m 0 min 0 min 0 W/m 6,4 km/h (2 Bft) 97,67 %
03.07.2023 01:58 15,4 C 14,4 C 11,7 C 71 % 1011,3 hPa 0,0 l/m 0 min 0 min 0 W/m 6,4 km/h (2 Bft) 100,00 %
03.07.2023 02:00 15,4 C 14,4 C 11,1 C 72 % 1011,2 hPa 0,0 l/m 0 min 0 min 0 W/m 6,4 km/h (2 Bft) 97,87 %
03.07.2023 02:02 15,3 C 14,4 C 11,7 C 72 % 1011,3 hPa 0,0 l/m 0 min 0 min 0 W/m 6,4 km/h (2 Bft) 100,00 %
03.07.2023 02:04 15,3 C 14,4 C 11,1 C 72 % 1011,3 hPa 0,0 l/m 0 min 0 min 0 W/m 6,4 km/h (2 Bft) 100,00 %
03.07.2023 02:06 15,3 C 14,4 C 11,1 C 72 % 1011,3 hPa 0,0 l/m 0 min 0 min 0 W/m 6,4 km/h (2 Bft) 100,00 %
03.07.2023 02:08 15,3 C 14,4 C 11,1 C 72 % 1011,2 hPa 0,0 l/m 0 min 0 min 0 W/m 3,2 km/h (1 Bft) 97,87 %
03.07.2023 02:10 15,2 C 14,4 C 11,1 C 72 % 1011,3 hPa 0,0 l/m 0 min 0 min 0 W/m 6,4 km/h (2 Bft) 100,00 %
03.07.2023 02:12 15,2 C 13,9 C 11,1 C 73 % 1011,3 hPa 0,0 l/m 0 min 0 min 0 W/m 3,2 km/h (1 Bft) 100,00 %
03.07.2023 02:14 15,2 C 13,9 C 11,1 C 73 % 1011,3 hPa 0,0 l/m 0 min 0 min 0 W/m 3,2 km/h (1 Bft) 100,00 %
03.07.2023 02:16 15,2 C 13,9 C 11,1 C 73 % 1011,3 hPa 0,0 l/m 0 min 0 min 0 W/m 16,1 km/h (3 Bft) 100,00 %
03.07.2023 02:18 15,1 C 13,9 C 11,1 C 73 % 1011,3 hPa 0,0 l/m 0 min 0 min 0 W/m 6,4 km/h (2 Bft) 95,74 %
03.07.2023 02:20 15,1 C 13,9 C 11,1 C 73 % 1011,2 hPa 0,0 l/m 0 min 0 min 0 W/m 6,4 km/h (2 Bft) 98,00 %
03.07.2023 02:22 15,1 C 13,9 C 11,1 C 73 % 1011,3 hPa 0,0 l/m 0 min 0 min 0 W/m 9,7 km/h (2 Bft) 100,00 %
03.07.2023 02:24 15,1 C 13,9 C 11,1 C 73 % 1011,3 hPa 0,0 l/m 0 min 0 min 0 W/m 16,1 km/h (3 Bft) 100,00 %
03.07.2023 02:26 15,1 C 13,9 C 11,1 C 73 % 1011,3 hPa 0,0 l/m 0 min 0 min 0 W/m 9,7 km/h (2 Bft) 100,00 %
03.07.2023 02:28 15,0 C 13,9 C 11,1 C 73 % 1011,3 hPa 0,0 l/m 0 min 0 min 0 W/m 6,4 km/h (2 Bft) 97,87 %
03.07.2023 02:30 15,0 C 13,9 C 11,1 C 73 % 1011,2 hPa 0,0 l/m 0 min 0 min 0 W/m 9,7 km/h (2 Bft) 98,00 %
03.07.2023 02:32 14,9 C 13,9 C 11,1 C 73 % 1011,3 hPa 0,0 l/m 0 min 0 min 0 W/m 12,9 km/h (3 Bft) 100,00 %
03.07.2023 02:34 14,9 C 13,9 C 11,1 C 73 % 1011,3 hPa 0,0 l/m 0 min 0 min 0 W/m 6,4 km/h (2 Bft) 100,00 %
03.07.2023 02:36 14,9 C 13,9 C 11,1 C 74 % 1011,2 hPa 0,0 l/m 0 min 0 min 0 W/m 12,9 km/h (3 Bft) 97,83 %
03.07.2023 02:38 14,9 C 13,9 C 11,1 C 74 % 1011,2 hPa 0,0 l/m 0 min 0 min 0 W/m 6,4 km/h (2 Bft) 97,87 %
03.07.2023 02:40 14,8 C 13,9 C 11,1 C 74 % 1011,2 hPa 0,0 l/m 0 min 0 min 0 W/m 22,5 km/h (4 Bft) 95,74 %
03.07.2023 02:42 14,8 C 13,9 C 11,1 C 74 % 1011,2 hPa 0,0 l/m 0 min 0 min 0 W/m 3,2 km/h (1 Bft) 95,74 %
03.07.2023 02:44 14,8 C 13,9 C 11,1 C 74 % 1011,2 hPa 0,0 l/m 0 min 0 min 0 W/m 6,4 km/h (2 Bft) 95,83 %
03.07.2023 02:46 14,8 C 13,9 C 11,1 C 74 % 1011,2 hPa 0,0 l/m 0 min 0 min 0 W/m 12,9 km/h (3 Bft) 95,74 %
03.07.2023 02:48 14,8 C 13,9 C 11,1 C 74 % 1011,2 hPa 0,0 l/m 0 min 0 min 0 W/m 12,9 km/h (3 Bft) 95,65 %
03.07.2023 02:50 14,8 C 13,9 C 11,1 C 74 % 1011,2 hPa 0,0 l/m 0 min 0 min 0 W/m 12,9 km/h (3 Bft) 95,74 %
03.07.2023 02:52 14,8 C 13,9 C 11,1 C 74 % 1011,1 hPa 0,0 l/m 0 min 0 min 0 W/m 6,4 km/h (2 Bft) 95,74 %
03.07.2023 02:54 14,7 C 13,9 C 11,1 C 74 % 1011,2 hPa 0,0 l/m 0 min 0 min 0 W/m 9,7 km/h (2 Bft) 91,49 %
03.07.2023 02:56 14,7 C 13,9 C 11,1 C 74 % 1011,2 hPa 0,0 l/m 0 min 0 min 0 W/m 12,9 km/h (3 Bft) 97,87 %
03.07.2023 02:58 14,7 C 13,9 C 11,1 C 74 % 1011,2 hPa 0,0 l/m 0 min 0 min 0 W/m 16,1 km/h (3 Bft) 100,00 %
03.07.2023 03:00 14,7 C 13,9 C 11,1 C 75 % 1011,2 hPa 0,0 l/m 0 min 0 min 0 W/m 9,7 km/h (2 Bft) 93,88 %
03.07.2023 03:02 14,7 C 13,9 C 11,1 C 75 % 1011,2 hPa 0,0 l/m 0 min 0 min 0 W/m 12,9 km/h (3 Bft) 93,62 %
03.07.2023 03:04 14,7 C 13,9 C 11,1 C 75 % 1011,1 hPa 0,0 l/m 0 min 0 min 0 W/m 6,4 km/h (2 Bft) 95,83 %
03.07.2023 03:06 14,7 C 13,9 C 11,1 C 75 % 1011,1 hPa 0,0 l/m 0 min 0 min 0 W/m 16,1 km/h (3 Bft) 96,61 %
03.07.2023 03:08 14,7 C 13,9 C 11,1 C 75 % 1011,2 hPa 0,0 l/m 0 min 0 min 0 W/m 12,9 km/h (3 Bft) 94,29 %
03.07.2023 03:10 14,7 C 13,9 C 11,1 C 75 % 1011,1 hPa 0,0 l/m 0 min 0 min 0 W/m 6,4 km/h (2 Bft) 97,87 %
03.07.2023 03:12 14,7 C 13,9 C 11,1 C 75 % 1011,1 hPa 0,0 l/m 0 min 0 min 0 W/m 12,9 km/h (3 Bft) 97,87 %
03.07.2023 03:14 14,7 C 13,9 C 11,1 C 75 % 1011,2 hPa 0,0 l/m 0 min 0 min 0 W/m 16,1 km/h (3 Bft) 95,65 %
03.07.2023 03:16 14,7 C 13,9 C 11,1 C 75 % 1011,1 hPa 0,0 l/m 0 min 0 min 0 W/m 12,9 km/h (3 Bft) 97,87 %
03.07.2023 03:18 14,7 C 13,9 C 11,1 C 75 % 1011,1 hPa 0,0 l/m 0 min 0 min 0 W/m 6,4 km/h (2 Bft) 97,87 %
03.07.2023 03:20 14,7 C 13,9 C 11,1 C 75 % 1011,1 hPa 0,0 l/m 0 min 0 min 0 W/m 6,4 km/h (2 Bft) 97,87 %
03.07.2023 03:22 14,7 C 13,9 C 11,1 C 75 % 1011,1 hPa 0,0 l/m 0 min 0 min 0 W/m 9,7 km/h (2 Bft) 100,00 %
03.07.2023 03:24 14,7 C 13,9 C 11,1 C 75 % 1011,1 hPa 0,0 l/m 0 min 0 min 0 W/m 22,5 km/h (4 Bft) 97,96 %
03.07.2023 03:26 14,7 C 13,9 C 11,1 C 75 % 1011,1 hPa 0,0 l/m 0 min 0 min 0 W/m 22,5 km/h (4 Bft) 100,00 %
03.07.2023 03:28 14,7 C 13,9 C 11,1 C 75 % 1011,1 hPa 0,0 l/m 0 min 0 min 0 W/m 12,9 km/h (3 Bft) 100,00 %
03.07.2023 03:30 14,7 C 13,9 C 11,1 C 75 % 1011,0 hPa 0,0 l/m 0 min 0 min 0 W/m 12,9 km/h (3 Bft) 100,00 %
03.07.2023 03:32 14,6 C 13,9 C 11,1 C 75 % 1011,0 hPa 0,0 l/m 0 min 0 min 0 W/m 6,4 km/h (2 Bft) 100,00 %
03.07.2023 03:34 14,6 C 13,9 C 11,1 C 76 % 1011,0 hPa 0,0 l/m 0 min 0 min 0 W/m 6,4 km/h (2 Bft) 97,78 %
03.07.2023 03:36 14,6 C 13,9 C 11,1 C 76 % 1011,0 hPa 0,0 l/m 0 min 0 min 0 W/m 12,9 km/h (3 Bft) 100,00 %
03.07.2023 03:38 14,6 C 13,9 C 11,1 C 76 % 1011,0 hPa 0,0 l/m 0 min 0 min 0 W/m 9,7 km/h (2 Bft) 100,00 %
03.07.2023 03:40 14,6 C 13,9 C 11,1 C 76 % 1011,0 hPa 0,0 l/m 0 min 0 min 0 W/m 16,1 km/h (3 Bft) 100,00 %
03.07.2023 03:42 14,6 C 13,9 C 10,6 C 76 % 1010,9 hPa 0,0 l/m 0 min 0 min 0 W/m 9,7 km/h (2 Bft) 100,00 %
03.07.2023 03:44 14,6 C 13,9 C 10,6 C 76 % 1011,0 hPa 0,0 l/m 0 min 0 min 0 W/m 6,4 km/h (2 Bft) 100,00 %
03.07.2023 03:46 14,5 C 13,9 C 10,6 C 76 % 1011,0 hPa 0,0 l/m 0 min 0 min 0 W/m 6,4 km/h (2 Bft) 100,00 %
03.07.2023 03:48 14,5 C 13,9 C 10,6 C 76 % 1011,0 hPa 0,0 l/m 0 min 0 min 0 W/m 12,9 km/h (3 Bft) 100,00 %
03.07.2023 03:50 14,4 C 13,9 C 10,6 C 76 % 1010,9 hPa 0,0 l/m 0 min 0 min 0 W/m 9,7 km/h (2 Bft) 100,00 %
03.07.2023 03:52 14,4 C 13,9 C 10,6 C 76 % 1010,9 hPa 0,0 l/m 0 min 0 min 0 W/m 16,1 km/h (3 Bft) 100,00 %
03.07.2023 03:54 14,4 C 13,9 C 10,6 C 76 % 1010,9 hPa 0,0 l/m 0 min 0 min 0 W/m 6,4 km/h (2 Bft) 100,00 %
03.07.2023 03:56 14,4 C 13,9 C 10,6 C 77 % 1010,9 hPa 0,0 l/m 0 min 0 min 0 W/m 16,1 km/h (3 Bft) 100,00 %
03.07.2023 03:58 14,3 C 13,9 C 10,6 C 77 % 1010,9 hPa 0,0 l/m 0 min 0 min 0 W/m 16,1 km/h (3 Bft) 100,00 %
03.07.2023 04:00 14,4 C 13,9 C 10,6 C 77 % 1010,9 hPa 0,0 l/m 0 min 0 min 0 W/m 25,7 km/h (4 Bft) 100,00 %
03.07.2023 04:02 14,3 C 13,9 C 10,6 C 77 % 1010,9 hPa 0,0 l/m 0 min 0 min 0 W/m 16,1 km/h (3 Bft) 96,55 %
03.07.2023 04:04 14,3 C 13,9 C 10,6 C 77 % 1011,0 hPa 0,0 l/m 0 min 0 min 0 W/m 19,3 km/h (3 Bft) 100,00 %
03.07.2023 04:06 14,3 C 13,9 C 10,6 C 77 % 1010,9 hPa 0,0 l/m 0 min 0 min 0 W/m 12,9 km/h (3 Bft) 100,00 %
03.07.2023 04:08 14,3 C 13,9 C 10,6 C 77 % 1010,9 hPa 0,0 l/m 0 min 0 min 0 W/m 19,3 km/h (3 Bft) 100,00 %
03.07.2023 04:10 14,3 C 13,9 C 10,6 C 77 % 1010,9 hPa 0,0 l/m 0 min 0 min 0 W/m 12,9 km/h (3 Bft) 100,00 %
03.07.2023 04:12 14,3 C 13,9 C 10,6 C 77 % 1010,8 hPa 0,0 l/m 0 min 0 min 0 W/m 19,3 km/h (3 Bft) 97,87 %
03.07.2023 04:14 14,3 C 13,9 C 10,6 C 77 % 1010,9 hPa 0,0 l/m 0 min 0 min 0 W/m 19,3 km/h (3 Bft) 100,00 %
03.07.2023 04:16 14,3 C 13,9 C 10,6 C 77 % 1010,9 hPa 0,0 l/m 0 min 0 min 0 W/m 12,9 km/h (3 Bft) 100,00 %
03.07.2023 04:18 14,3 C 13,9 C 10,6 C 77 % 1010,9 hPa 0,0 l/m 0 min 0 min 0 W/m 12,9 km/h (3 Bft) 97,87 %
03.07.2023 04:20 14,3 C 13,9 C 10,6 C 78 % 1010,9 hPa 0,0 l/m 0 min 0 min 0 W/m 16,1 km/h (3 Bft) 97,87 %
03.07.2023 04:22 14,3 C 13,9 C 10,6 C 78 % 1010,9 hPa 0,0 l/m 0 min 0 min 0 W/m 16,1 km/h (3 Bft) 97,87 %
03.07.2023 04:24 14,3 C 13,9 C 10,6 C 78 % 1010,9 hPa 0,0 l/m 0 min 0 min 0 W/m 19,3 km/h (3 Bft) 94,00 %
03.07.2023 04:26 14,3 C 13,9 C 10,6 C 78 % 1010,9 hPa 0,0 l/m 0 min 0 min 0 W/m 12,9 km/h (3 Bft) 97,87 %
03.07.2023 04:28 14,3 C 13,9 C 10,6 C 78 % 1010,9 hPa 0,0 l/m 0 min 0 min 0 W/m 22,5 km/h (4 Bft) 95,65 %
03.07.2023 04:30 14,4 C 13,9 C 10,6 C 78 % 1010,9 hPa 0,0 l/m 0 min 0 min 0 W/m 16,1 km/h (3 Bft) 93,62 %
03.07.2023 04:32 14,3 C 13,9 C 10,6 C 78 % 1010,9 hPa 0,0 l/m 0 min 0 min 0 W/m 22,5 km/h (4 Bft) 95,74 %
03.07.2023 04:34 14,3 C 13,9 C 10,6 C 78 % 1010,8 hPa 0,0 l/m 0 min 0 min 0 W/m 19,3 km/h (3 Bft) 95,74 %
03.07.2023 04:36 14,3 C 13,9 C 10,6 C 78 % 1010,8 hPa 0,0 l/m 0 min 0 min 0 W/m 6,4 km/h (2 Bft) 95,74 %
03.07.2023 04:38 14,4 C 13,9 C 10,6 C 78 % 1010,8 hPa 0,0 l/m 0 min 0 min 0 W/m 25,7 km/h (4 Bft) 95,74 %
03.07.2023 04:40 14,3 C 13,9 C 10,6 C 78 % 1010,7 hPa 0,0 l/m 0 min 0 min 0 W/m 32,2 km/h (5 Bft) 93,62 %
03.07.2023 04:42 14,3 C 13,9 C 10,6 C 78 % 1010,7 hPa 0,0 l/m 0 min 0 min 0 W/m 12,9 km/h (3 Bft) 93,48 %
03.07.2023 04:44 14,3 C 13,9 C 10,6 C 79 % 1010,8 hPa 0,0 l/m 0 min 0 min 0 W/m 12,9 km/h (3 Bft) 95,74 %
03.07.2023 04:46 14,3 C 13,9 C 10,6 C 79 % 1010,8 hPa 0,0 l/m 0 min 0 min 0 W/m 19,3 km/h (3 Bft) 95,74 %
03.07.2023 04:48 14,3 C 13,9 C 10,6 C 79 % 1010,8 hPa 0,0 l/m 0 min 0 min 0 W/m 12,9 km/h (3 Bft) 91,49 %
03.07.2023 04:50 14,4 C 13,9 C 10,6 C 79 % 1010,8 hPa 0,0 l/m 0 min 0 min 0 W/m 9,7 km/h (2 Bft) 95,74 %
03.07.2023 04:52 14,3 C 13,9 C 10,6 C 79 % 1010,9 hPa 0,0 l/m 0 min 0 min 0 W/m 16,1 km/h (3 Bft) 95,74 %
03.07.2023 04:54 14,3 C 13,9 C 10,6 C 79 % 1010,8 hPa 0,0 l/m 0 min 0 min 0 W/m 6,4 km/h (2 Bft) 95,74 %
03.07.2023 04:56 14,3 C 13,9 C 10,6 C 79 % 1010,8 hPa 0,0 l/m 0 min 0 min 0 W/m 6,4 km/h (2 Bft) 89,13 %
03.07.2023 04:58 14,3 C 13,9 C 10,6 C 79 % 1010,8 hPa 0,0 l/m 0 min 0 min 0 W/m 9,7 km/h (2 Bft) 97,87 %
03.07.2023 05:00 14,3 C 13,9 C 10,6 C 79 % 1010,8 hPa 0,0 l/m 0 min 0 min 0 W/m 9,7 km/h (2 Bft) 95,74 %
03.07.2023 05:02 14,3 C 13,9 C 10,6 C 79 % 1010,8 hPa 0,0 l/m 0 min 0 min 0 W/m 12,9 km/h (3 Bft) 95,74 %
03.07.2023 05:04 14,3 C 13,9 C 10,6 C 80 % 1010,7 hPa 0,0 l/m 0 min 0 min 0 W/m 12,9 km/h (3 Bft) 97,92 %
03.07.2023 05:06 14,3 C 13,9 C 10,6 C 80 % 1010,7 hPa 0,0 l/m 0 min 0 min 0 W/m 19,3 km/h (3 Bft) 96,08 %
03.07.2023 05:08 14,3 C 13,9 C 10,6 C 80 % 1010,8 hPa 0,0 l/m 0 min 0 min 0 W/m 12,9 km/h (3 Bft) 97,87 %
03.07.2023 05:10 14,3 C 13,9 C 10,6 C 80 % 1010,8 hPa 0,0 l/m 0 min 0 min 0 W/m 19,3 km/h (3 Bft) 100,00 %
03.07.2023 05:12 14,3 C 13,9 C 10,6 C 80 % 1010,8 hPa 0,0 l/m 0 min 0 min 0 W/m 16,1 km/h (3 Bft) 100,00 %
03.07.2023 05:14 14,3 C 13,9 C 10,6 C 80 % 1010,8 hPa 0,0 l/m 0 min 0 min 0 W/m 19,3 km/h (3 Bft) 95,65 %
03.07.2023 05:16 14,3 C 13,9 C 10,6 C 80 % 1010,7 hPa 0,0 l/m 0 min 0 min 0 W/m 6,4 km/h (2 Bft) 100,00 %
03.07.2023 05:18 14,3 C 13,9 C 10,6 C 80 % 1010,7 hPa 0,0 l/m 0 min 0 min 0 W/m 12,9 km/h (3 Bft) 100,00 %
03.07.2023 05:20 14,3 C 13,9 C 10,6 C 80 % 1010,7 hPa 0,0 l/m 0 min 0 min 0 W/m 6,4 km/h (2 Bft) 97,87 %
03.07.2023 05:22 14,3 C 13,9 C 10,6 C 81 % 1010,7 hPa 0,0 l/m 0 min 0 min 0 W/m 12,9 km/h (3 Bft) 97,87 %
03.07.2023 05:24 14,3 C 13,9 C 10,6 C 81 % 1010,7 hPa 0,0 l/m 0 min 0 min 0 W/m 12,9 km/h (3 Bft) 95,74 %
03.07.2023 05:26 14,4 C 13,9 C 10,6 C 81 % 1010,6 hPa 0,0 l/m 0 min 0 min 0 W/m 12,9 km/h (3 Bft) 97,83 %
03.07.2023 05:28 14,4 C 13,9 C 10,6 C 81 % 1010,6 hPa 0,0 l/m 0 min 0 min 0 W/m 16,1 km/h (3 Bft) 95,74 %
03.07.2023 05:30 14,4 C 13,9 C 10,6 C 81 % 1010,6 hPa 0,0 l/m 0 min 0 min 0 W/m 12,9 km/h (3 Bft) 95,74 %
03.07.2023 05:32 14,4 C 13,9 C 10,6 C 81 % 1010,7 hPa 0,0 l/m 0 min 0 min 0 W/m 16,1 km/h (3 Bft) 97,87 %
03.07.2023 05:34 14,4 C 13,9 C 10,6 C 81 % 1010,7 hPa 0,0 l/m 0 min 0 min 4 W/m 6,4 km/h (2 Bft) 97,87 %
03.07.2023 05:36 14,4 C 13,9 C 10,6 C 81 % 1010,7 hPa 0,0 l/m 0 min 0 min 5 W/m 6,4 km/h (2 Bft) 97,87 %
03.07.2023 05:38 14,4 C 13,9 C 10,6 C 81 % 1010,6 hPa 0,0 l/m 0 min 0 min 6 W/m 12,9 km/h (3 Bft) 97,87 %
03.07.2023 05:40 14,4 C 13,9 C 10,6 C 81 % 1010,6 hPa 0,0 l/m 0 min 0 min 7 W/m 19,3 km/h (3 Bft) 97,83 %
03.07.2023 05:42 14,4 C 13,9 C 10,6 C 82 % 1010,6 hPa 0,0 l/m 0 min 0 min 7 W/m 9,7 km/h (2 Bft) 97,87 %
03.07.2023 05:44 14,4 C 13,9 C 10,6 C 82 % 1010,6 hPa 0,0 l/m 0 min 0 min 9 W/m 9,7 km/h (2 Bft) 95,74 %
03.07.2023 05:46 14,4 C 13,9 C 10,6 C 82 % 1010,6 hPa 0,0 l/m 0 min 0 min 9 W/m 9,7 km/h (2 Bft) 97,87 %
03.07.2023 05:48 14,4 C 13,9 C 10,6 C 82 % 1010,7 hPa 0,0 l/m 0 min 0 min 11 W/m 19,3 km/h (3 Bft) 97,87 %
03.07.2023 05:50 14,4 C 13,9 C 10,6 C 82 % 1010,6 hPa 0,0 l/m 0 min 0 min 11 W/m 19,3 km/h (3 Bft) 97,87 %
03.07.2023 05:52 14,4 C 13,9 C 10,6 C 82 % 1010,6 hPa 0,0 l/m 0 min 0 min 13 W/m 6,4 km/h (2 Bft) 95,74 %
03.07.2023 05:54 14,4 C 13,9 C 10,6 C 82 % 1010,6 hPa 0,0 l/m 0 min 0 min 14 W/m 12,9 km/h (3 Bft) 97,83 %
03.07.2023 05:56 14,4 C 13,9 C 10,6 C 82 % 1010,6 hPa 0,0 l/m 0 min 0 min 16 W/m 12,9 km/h (3 Bft) 97,87 %
03.07.2023 05:58 14,4 C 13,9 C 10,6 C 82 % 1010,5 hPa 0,0 l/m 0 min 0 min 18 W/m 12,9 km/h (3 Bft) 97,87 %
03.07.2023 06:00 14,4 C 13,9 C 10,6 C 82 % 1010,6 hPa 0,0 l/m 0 min 0 min 19 W/m 6,4 km/h (2 Bft) 95,74 %
03.07.2023 06:02 14,4 C 13,9 C 10,6 C 82 % 1010,6 hPa 0,0 l/m 0 min 0 min 20 W/m 9,7 km/h (2 Bft) 97,87 %
03.07.2023 06:04 14,5 C 13,9 C 10,6 C 82 % 1010,6 hPa 0,0 l/m 0 min 0 min 21 W/m 9,7 km/h (2 Bft) 97,87 %
03.07.2023 06:07 14,4 C 13,9 C 10,6 C 83 % 1010,6 hPa 0,0 l/m 0 min 0 min 23 W/m 16,1 km/h (3 Bft) 97,87 %
03.07.2023 06:08 14,4 C 13,9 C 10,6 C 83 % 1010,6 hPa 0,0 l/m 0 min 0 min 23 W/m 16,1 km/h (3 Bft) 98,95 %
03.07.2023 06:12 14,4 C 13,9 C 10,6 C 83 % 1010,6 hPa 0,0 l/m 0 min 0 min 26 W/m 6,4 km/h (2 Bft) 94,44 %
03.07.2023 06:14 14,5 C 13,9 C 10,6 C 83 % 1010,7 hPa 0,0 l/m 0 min 0 min 26 W/m 12,9 km/h (3 Bft) 97,87 %
03.07.2023 06:16 14,5 C 13,9 C 10,6 C 83 % 1010,6 hPa 0,0 l/m 0 min 0 min 27 W/m 12,9 km/h (3 Bft) 97,87 %
03.07.2023 06:18 14,5 C 13,9 C 10,6 C 83 % 1010,6 hPa 0,0 l/m 0 min 0 min 28 W/m 19,3 km/h (3 Bft) 97,83 %
03.07.2023 06:20 14,5 C 13,9 C 10,6 C 83 % 1010,6 hPa 0,0 l/m 0 min 0 min 30 W/m 6,4 km/h (2 Bft) 97,87 %
03.07.2023 06:22 14,6 C 13,9 C 10,6 C 83 % 1010,7 hPa 0,0 l/m 0 min 0 min 32 W/m 12,9 km/h (3 Bft) 95,74 %
03.07.2023 06:24 14,6 C 13,9 C 11,1 C 83 % 1010,6 hPa 0,0 l/m 0 min 0 min 32 W/m 12,9 km/h (3 Bft) 97,87 %
03.07.2023 06:26 14,6 C 13,9 C 11,1 C 83 % 1010,6 hPa 0,0 l/m 0 min 0 min 34 W/m 19,3 km/h (3 Bft) 97,87 %
03.07.2023 06:28 14,6 C 13,9 C 11,1 C 83 % 1010,6 hPa 0,0 l/m 0 min 0 min 34 W/m 22,5 km/h (4 Bft) 97,87 %
03.07.2023 06:30 14,6 C 13,9 C 11,1 C 83 % 1010,7 hPa 0,0 l/m 0 min 0 min 33 W/m 12,9 km/h (3 Bft) 95,74 %
03.07.2023 06:32 14,6 C 13,9 C 11,1 C 83 % 1010,6 hPa 0,0 l/m 0 min 0 min 35 W/m 12,9 km/h (3 Bft) 97,83 %
03.07.2023 06:34 14,6 C 13,9 C 11,1 C 83 % 1010,6 hPa 0,0 l/m 0 min 0 min 38 W/m 16,1 km/h (3 Bft) 97,87 %
03.07.2023 06:36 14,6 C 13,9 C 11,1 C 83 % 1010,6 hPa 0,0 l/m 0 min 0 min 40 W/m 16,1 km/h (3 Bft) 97,87 %
03.07.2023 06:38 14,6 C 13,9 C 11,1 C 83 % 1010,6 hPa 0,0 l/m 0 min 0 min 41 W/m 12,9 km/h (3 Bft) 97,87 %
03.07.2023 06:40 14,6 C 13,9 C 11,1 C 83 % 1010,6 hPa 0,0 l/m 0 min 0 min 39 W/m 16,1 km/h (3 Bft) 95,74 %
03.07.2023 06:42 14,6 C 13,9 C 11,1 C 83 % 1010,7 hPa 0,0 l/m 0 min 0 min 39 W/m 16,1 km/h (3 Bft) 97,87 %
03.07.2023 06:44 14,6 C 13,9 C 11,1 C 83 % 1010,8 hPa 0,0 l/m 0 min 0 min 48 W/m 12,9 km/h (3 Bft) 97,87 %
03.07.2023 06:46 14,6 C 13,9 C 11,1 C 83 % 1010,7 hPa 0,0 l/m 0 min 0 min 55 W/m 12,9 km/h (3 Bft) 97,83 %
03.07.2023 06:48 14,7 C 14,4 C 11,1 C 83 % 1010,8 hPa 0,0 l/m 0 min 0 min 49 W/m 16,1 km/h (3 Bft) 100,00 %
03.07.2023 06:50 14,7 C 14,4 C 11,1 C 83 % 1010,8 hPa 0,0 l/m 0 min 0 min 48 W/m 16,1 km/h (3 Bft) 100,00 %
03.07.2023 06:52 14,7 C 14,4 C 11,1 C 83 % 1010,8 hPa 0,0 l/m 0 min 0 min 52 W/m 22,5 km/h (4 Bft) 100,00 %
03.07.2023 06:54 14,7 C 14,4 C 11,1 C 83 % 1010,8 hPa 0,0 l/m 0 min 0 min 60 W/m 22,5 km/h (4 Bft) 100,00 %
03.07.2023 06:56 14,7 C 14,4 C 11,1 C 83 % 1010,8 hPa 0,0 l/m 0 min 0 min 62 W/m 22,5 km/h (4 Bft) 100,00 %
03.07.2023 06:58 14,7 C 14,4 C 11,1 C 83 % 1010,8 hPa 0,0 l/m 0 min 0 min 57 W/m 19,3 km/h (3 Bft) 100,00 %
03.07.2023 07:00 14,7 C 14,4 C 11,1 C 83 % 1010,8 hPa 0,0 l/m 0 min 0 min 54 W/m 12,9 km/h (3 Bft) 100,00 %
03.07.2023 07:02 14,7 C 14,4 C 11,1 C 83 % 1010,8 hPa 0,0 l/m 0 min 0 min 56 W/m 12,9 km/h (3 Bft) 100,00 %
03.07.2023 07:04 14,7 C 14,4 C 11,1 C 83 % 1010,8 hPa 0,0 l/m 0 min 0 min 57 W/m 16,1 km/h (3 Bft) 100,00 %
03.07.2023 07:06 14,8 C 14,4 C 11,1 C 84 % 1010,9 hPa 0,0 l/m 0 min 0 min 56 W/m 16,1 km/h (3 Bft) 100,00 %
03.07.2023 07:08 14,8 C 14,4 C 11,1 C 84 % 1010,9 hPa 0,0 l/m 0 min 0 min 54 W/m 12,9 km/h (3 Bft) 100,00 %
03.07.2023 07:10 14,8 C 14,4 C 11,1 C 84 % 1010,9 hPa 0,0 l/m 0 min 0 min 54 W/m 12,9 km/h (3 Bft) 100,00 %
03.07.2023 07:12 14,8 C 14,4 C 11,1 C 83 % 1011,0 hPa 0,0 l/m 0 min 0 min 58 W/m 25,7 km/h (4 Bft) 100,00 %
03.07.2023 07:14 14,8 C 14,4 C 11,1 C 83 % 1010,9 hPa 0,0 l/m 0 min 0 min 62 W/m 19,3 km/h (3 Bft) 100,00 %
03.07.2023 07:16 14,8 C 14,4 C 11,1 C 83 % 1010,9 hPa 0,0 l/m 0 min 0 min 63 W/m 16,1 km/h (3 Bft) 95,74 %
03.07.2023 07:18 14,8 C 14,4 C 11,1 C 84 % 1010,9 hPa 0,0 l/m 0 min 0 min 64 W/m 16,1 km/h (3 Bft) 97,87 %
03.07.2023 07:20 14,8 C 14,4 C 11,1 C 84 % 1010,9 hPa 0,0 l/m 0 min 0 min 65 W/m 6,4 km/h (2 Bft) 97,87 %
03.07.2023 07:22 14,9 C 14,4 C 11,1 C 84 % 1010,9 hPa 0,0 l/m 0 min 0 min 68 W/m 16,1 km/h (3 Bft) 93,62 %
03.07.2023 07:24 14,9 C 14,4 C 11,1 C 84 % 1011,0 hPa 0,0 l/m 0 min 0 min 69 W/m 12,9 km/h (3 Bft) 97,87 %
03.07.2023 07:26 14,9 C 14,4 C 11,1 C 84 % 1010,9 hPa 0,0 l/m 0 min 0 min 68 W/m 16,1 km/h (3 Bft) 97,87 %
03.07.2023 07:28 14,9 C 14,4 C 11,1 C 84 % 1011,0 hPa 0,0 l/m 0 min 0 min 67 W/m 19,3 km/h (3 Bft) 97,83 %
03.07.2023 07:30 14,9 C 14,4 C 11,1 C 84 % 1011,0 hPa 0,0 l/m 0 min 0 min 64 W/m 19,3 km/h (3 Bft) 97,87 %
03.07.2023 07:32 15,0 C 14,4 C 11,1 C 84 % 1011,0 hPa 0,0 l/m 0 min 0 min 67 W/m 22,5 km/h (4 Bft) 95,74 %
03.07.2023 07:34 15,0 C 14,4 C 11,1 C 84 % 1011,0 hPa 0,0 l/m 0 min 0 min 67 W/m 12,9 km/h (3 Bft) 97,87 %
03.07.2023 07:36 15,0 C 14,4 C 11,1 C 84 % 1011,0 hPa 0,0 l/m 0 min 0 min 62 W/m 9,7 km/h (2 Bft) 97,87 %
03.07.2023 07:38 15,1 C 14,4 C 11,7 C 84 % 1011,0 hPa 0,0 l/m 0 min 0 min 63 W/m 29,0 km/h (5 Bft) 95,74 %
03.07.2023 07:40 15,1 C 14,4 C 11,1 C 84 % 1011,1 hPa 0,0 l/m 0 min 0 min 69 W/m 12,9 km/h (3 Bft) 97,87 %
03.07.2023 07:42 15,1 C 14,4 C 11,7 C 84 % 1011,1 hPa 0,0 l/m 0 min 0 min 77 W/m 12,9 km/h (3 Bft) 97,83 %
03.07.2023 07:44 15,1 C 14,4 C 11,7 C 84 % 1011,1 hPa 0,0 l/m 0 min 0 min 84 W/m 19,3 km/h (3 Bft) 97,87 %
03.07.2023 07:46 15,1 C 14,4 C 11,7 C 84 % 1011,1 hPa 0,0 l/m 0 min 0 min 91 W/m 19,3 km/h (3 Bft) 97,87 %
03.07.2023 07:48 15,1 C 14,4 C 11,7 C 84 % 1011,1 hPa 0,0 l/m 0 min 0 min 94 W/m 22,5 km/h (4 Bft) 97,87 %
03.07.2023 07:50 15,1 C 15,0 C 11,7 C 84 % 1011,1 hPa 0,0 l/m 0 min 0 min 97 W/m 12,9 km/h (3 Bft) 95,74 %
03.07.2023 07:52 15,2 C 15,0 C 11,7 C 84 % 1011,1 hPa 0,0 l/m 0 min 0 min 101 W/m 19,3 km/h (3 Bft) 97,87 %
03.07.2023 07:54 15,2 C 15,0 C 11,7 C 84 % 1011,2 hPa 0,0 l/m 0 min 0 min 97 W/m 12,9 km/h (3 Bft) 97,83 %
03.07.2023 07:56 15,2 C 15,0 C 11,7 C 84 % 1011,3 hPa 0,0 l/m 0 min 0 min 97 W/m 16,1 km/h (3 Bft) 97,87 %
03.07.2023 07:58 15,2 C 15,0 C 11,7 C 84 % 1011,2 hPa 0,0 l/m 0 min 0 min 98 W/m 12,9 km/h (3 Bft) 97,87 %
03.07.2023 08:00 15,3 C 15,0 C 11,7 C 84 % 1011,2 hPa 0,0 l/m 0 min 0 min 96 W/m 16,1 km/h (3 Bft) 97,87 %
03.07.2023 08:02 15,3 C 15,0 C 11,7 C 84 % 1011,2 hPa 0,0 l/m 0 min 0 min 112 W/m 12,9 km/h (3 Bft) 97,87 %
03.07.2023 08:04 15,3 C 15,0 C 11,7 C 83 % 1011,2 hPa 0,0 l/m 0 min 0 min 98 W/m 22,5 km/h (4 Bft) 100,00 %
03.07.2023 08:06 15,4 C 15,0 C 11,7 C 83 % 1011,2 hPa 0,0 l/m 0 min 0 min 85 W/m 12,9 km/h (3 Bft) 100,00 %
03.07.2023 08:08 15,4 C 15,0 C 11,7 C 83 % 1011,1 hPa 0,0 l/m 0 min 0 min 85 W/m 12,9 km/h (3 Bft) 100,00 %
03.07.2023 08:10 15,4 C 16,1 C 11,7 C 83 % 1011,2 hPa 0,0 l/m 0 min 0 min 120 W/m 19,3 km/h (3 Bft) 93,62 %
03.07.2023 08:12 15,4 C 16,7 C 11,7 C 83 % 1011,2 hPa 0,0 l/m 2 min 0 min 323 W/m 12,9 km/h (3 Bft) 95,74 %
03.07.2023 08:14 15,6 C 17,8 C 11,7 C 83 % 1011,3 hPa 0,0 l/m 2 min 0 min 336 W/m 16,1 km/h (3 Bft) 97,87 %
03.07.2023 08:16 15,6 C 17,8 C 12,2 C 84 % 1011,2 hPa 0,0 l/m 2 min 0 min 341 W/m 12,9 km/h (3 Bft) 97,87 %
03.07.2023 08:18 15,8 C 17,8 C 12,2 C 83 % 1011,3 hPa 0,0 l/m 2 min 0 min 350 W/m 12,9 km/h (3 Bft) 97,87 %
03.07.2023 08:20 15,8 C 17,8 C 12,2 C 83 % 1011,3 hPa 0,0 l/m 0 min 0 min 153 W/m 9,7 km/h (2 Bft) 95,74 %
03.07.2023 08:22 15,9 C 17,8 C 12,2 C 82 % 1011,3 hPa 0,0 l/m 0 min 0 min 160 W/m 12,9 km/h (3 Bft) 93,48 %
03.07.2023 08:24 16,0 C 18,3 C 12,8 C 82 % 1011,3 hPa 0,0 l/m 2 min 0 min 336 W/m 12,9 km/h (3 Bft) 95,74 %
03.07.2023 08:26 16,1 C 18,3 C 12,8 C 82 % 1011,2 hPa 0,0 l/m 2 min 0 min 342 W/m 6,4 km/h (2 Bft) 93,62 %
03.07.2023 08:28 16,1 C 18,3 C 12,8 C 82 % 1011,3 hPa 0,0 l/m 2 min 0 min 390 W/m 16,1 km/h (3 Bft) 95,74 %
03.07.2023 08:30 16,3 C 18,3 C 13,3 C 82 % 1011,3 hPa 0,0 l/m 2 min 0 min 390 W/m 16,1 km/h (3 Bft) 95,74 %
03.07.2023 08:32 16,3 C 18,9 C 13,3 C 81 % 1011,3 hPa 0,0 l/m 2 min 0 min 417 W/m 19,3 km/h (3 Bft) 93,62 %
03.07.2023 08:34 16,4 C 17,8 C 13,3 C 81 % 1011,4 hPa 0,0 l/m 2 min 0 min 371 W/m 12,9 km/h (3 Bft) 95,74 %
03.07.2023 08:36 16,4 C 17,2 C 13,3 C 80 % 1011,3 hPa 0,0 l/m 0 min 0 min 104 W/m 22,5 km/h (4 Bft) 95,65 %
03.07.2023 08:38 16,4 C 18,3 C 13,3 C 81 % 1011,3 hPa 0,0 l/m 2 min 0 min 335 W/m 16,1 km/h (3 Bft) 95,74 %
03.07.2023 08:40 16,5 C 18,9 C 13,9 C 80 % 1011,3 hPa 0,0 l/m 2 min 0 min 416 W/m 22,5 km/h (4 Bft) 95,74 %
03.07.2023 08:42 16,6 C 19,4 C 13,9 C 80 % 1011,3 hPa 0,0 l/m 2 min 0 min 274 W/m 19,3 km/h (3 Bft) 95,74 %
03.07.2023 08:44 16,7 C 18,9 C 13,9 C 80 % 1011,3 hPa 0,0 l/m 0 min 0 min 206 W/m 19,3 km/h (3 Bft) 95,74 %
03.07.2023 08:46 16,7 C 20,0 C 14,4 C 80 % 1011,3 hPa 0,0 l/m 2 min 0 min 438 W/m 16,1 km/h (3 Bft) 97,87 %
03.07.2023 08:48 16,7 C 20,0 C 14,4 C 79 % 1011,3 hPa 0,0 l/m 2 min 0 min 460 W/m 25,7 km/h (4 Bft) 97,87 %
03.07.2023 08:50 16,7 C 19,4 C 14,4 C 79 % 1011,4 hPa 0,0 l/m 2 min 0 min 461 W/m 22,5 km/h (4 Bft) 97,83 %
03.07.2023 08:52 16,7 C 19,4 C 14,4 C 79 % 1011,4 hPa 0,0 l/m 2 min 0 min 430 W/m 19,3 km/h (3 Bft) 97,87 %
03.07.2023 08:54 16,8 C 20,0 C 14,4 C 79 % 1011,3 hPa 0,0 l/m 2 min 0 min 428 W/m 19,3 km/h (3 Bft) 97,87 %
03.07.2023 08:56 16,8 C 21,1 C 15,0 C 79 % 1011,3 hPa 0,0 l/m 2 min 0 min 465 W/m 19,3 km/h (3 Bft) 97,87 %
03.07.2023 08:58 16,9 C 21,1 C 15,6 C 79 % 1011,4 hPa 0,0 l/m 2 min 0 min 480 W/m 16,1 km/h (3 Bft) 97,87 %
03.07.2023 09:00 17,1 C 21,7 C 15,6 C 78 % 1011,4 hPa 0,0 l/m 2 min 0 min 476 W/m 22,5 km/h (4 Bft) 97,87 %
03.07.2023 09:02 17,2 C 21,1 C 15,6 C 78 % 1011,3 hPa 0,0 l/m 2 min 0 min 453 W/m 16,1 km/h (3 Bft) 93,62 %
03.07.2023 09:04 17,3 C 21,7 C 15,6 C 78 % 1011,3 hPa 0,0 l/m 2 min 0 min 469 W/m 12,9 km/h (3 Bft) 97,92 %
03.07.2023 09:06 17,5 C 22,2 C 16,1 C 78 % 1011,3 hPa 0,0 l/m 2 min 0 min 542 W/m 16,1 km/h (3 Bft) 97,87 %
03.07.2023 09:08 17,6 C 22,2 C 16,1 C 77 % 1011,3 hPa 0,0 l/m 2 min 0 min 554 W/m 22,5 km/h (4 Bft) 95,74 %
03.07.2023 09:10 17,7 C 22,2 C 16,1 C 77 % 1011,3 hPa 0,0 l/m 2 min 0 min 532 W/m 16,1 km/h (3 Bft) 97,87 %
03.07.2023 09:12 17,8 C 21,7 C 16,1 C 76 % 1011,3 hPa 0,0 l/m 2 min 0 min 544 W/m 22,5 km/h (4 Bft) 97,87 %
03.07.2023 09:14 17,9 C 21,7 C 16,1 C 75 % 1011,4 hPa 0,0 l/m 2 min 0 min 558 W/m 19,3 km/h (3 Bft) 97,87 %
03.07.2023 09:16 17,9 C 21,1 C 16,1 C 74 % 1011,4 hPa 0,0 l/m 2 min 0 min 573 W/m 22,5 km/h (4 Bft) 97,83 %
03.07.2023 09:18 17,8 C 20,0 C 15,6 C 74 % 1011,4 hPa 0,0 l/m 2 min 0 min 573 W/m 19,3 km/h (3 Bft) 97,87 %
03.07.2023 09:20 17,8 C 20,0 C 15,6 C 74 % 1011,3 hPa 0,0 l/m 2 min 0 min 573 W/m 16,1 km/h (3 Bft) 97,87 %
03.07.2023 09:22 17,8 C 21,1 C 16,1 C 74 % 1011,3 hPa 0,0 l/m 2 min 0 min 588 W/m 12,9 km/h (3 Bft) 95,74 %
03.07.2023 09:24 17,8 C 20,6 C 16,1 C 74 % 1011,3 hPa 0,0 l/m 2 min 0 min 570 W/m 16,1 km/h (3 Bft) 95,74 %
03.07.2023 09:26 17,9 C 21,1 C 16,1 C 74 % 1011,3 hPa 0,0 l/m 2 min 0 min 380 W/m 16,1 km/h (3 Bft) 95,74 %
03.07.2023 09:28 17,9 C 20,6 C 16,1 C 74 % 1011,3 hPa 0,0 l/m 2 min 0 min 567 W/m 16,1 km/h (3 Bft) 95,74 %
03.07.2023 09:30 17,8 C 20,0 C 16,1 C 73 % 1011,3 hPa 0,0 l/m 2 min 0 min 570 W/m 19,3 km/h (3 Bft) 97,83 %
03.07.2023 09:32 17,8 C 21,1 C 16,7 C 73 % 1011,4 hPa 0,0 l/m 2 min 0 min 567 W/m 25,7 km/h (4 Bft) 95,74 %
03.07.2023 09:34 17,9 C 20,6 C 16,7 C 72 % 1011,5 hPa 0,0 l/m 2 min 0 min 585 W/m 19,3 km/h (3 Bft) 97,87 %
03.07.2023 09:36 17,9 C 21,1 C 16,7 C 73 % 1011,4 hPa 0,0 l/m 2 min 0 min 630 W/m 19,3 km/h (3 Bft) 97,87 %
03.07.2023 09:38 18,0 C 20,6 C 16,7 C 73 % 1011,5 hPa 0,0 l/m 2 min 0 min 638 W/m 22,5 km/h (4 Bft) 97,87 %
03.07.2023 09:40 18,1 C 21,1 C 16,7 C 72 % 1011,4 hPa 0,0 l/m 2 min 0 min 655 W/m 22,5 km/h (4 Bft) 97,87 %
03.07.2023 09:42 18,2 C 21,7 C 17,2 C 72 % 1011,4 hPa 0,0 l/m 2 min 0 min 659 W/m 22,5 km/h (4 Bft) 95,74 %
03.07.2023 09:44 18,3 C 21,7 C 17,2 C 72 % 1011,5 hPa 0,0 l/m 2 min 0 min 626 W/m 19,3 km/h (3 Bft) 97,83 %
03.07.2023 09:46 18,3 C 21,1 C 17,2 C 71 % 1011,5 hPa 0,0 l/m 2 min 0 min 615 W/m 19,3 km/h (3 Bft) 97,87 %
03.07.2023 09:48 18,4 C 21,1 C 17,2 C 71 % 1011,4 hPa 0,0 l/m 2 min 0 min 723 W/m 25,7 km/h (4 Bft) 93,62 %
03.07.2023 09:50 18,4 C 20,6 C 17,2 C 71 % 1011,4 hPa 0,0 l/m 2 min 0 min 738 W/m 32,2 km/h (5 Bft) 95,74 %
03.07.2023 09:52 18,4 C 20,0 C 16,7 C 70 % 1011,4 hPa 0,0 l/m 2 min 0 min 544 W/m 22,5 km/h (4 Bft) 97,87 %
03.07.2023 09:54 18,3 C 18,9 C 16,1 C 69 % 1011,4 hPa 0,0 l/m 0 min 0 min 154 W/m 19,3 km/h (3 Bft) 97,87 %
03.07.2023 09:56 18,2 C 18,3 C 15,6 C 70 % 1011,4 hPa 0,0 l/m 0 min 0 min 177 W/m 16,1 km/h (3 Bft) 97,83 %
03.07.2023 09:58 18,1 C 18,3 C 15,6 C 70 % 1011,5 hPa 0,0 l/m 0 min 0 min 187 W/m 19,3 km/h (3 Bft) 95,74 %
03.07.2023 10:00 18,1 C 18,3 C 15,6 C 70 % 1011,5 hPa 0,0 l/m 0 min 0 min 180 W/m 19,3 km/h (3 Bft) 97,87 %
03.07.2023 10:02 18,1 C 18,3 C 15,0 C 70 % 1011,5 hPa 0,0 l/m 0 min 0 min 222 W/m 16,1 km/h (3 Bft) 97,87 %
03.07.2023 10:04 18,1 C 18,9 C 16,1 C 71 % 1011,5 hPa 0,0 l/m 0 min 0 min 281 W/m 16,1 km/h (3 Bft) 97,92 %
03.07.2023 10:06 18,1 C 18,9 C 15,6 C 71 % 1011,4 hPa 0,0 l/m 0 min 0 min 251 W/m 12,9 km/h (3 Bft) 93,62 %
03.07.2023 10:08 18,1 C 18,9 C 15,6 C 71 % 1011,5 hPa 0,0 l/m 0 min 0 min 233 W/m 12,9 km/h (3 Bft) 97,87 %
03.07.2023 10:10 18,2 C 18,9 C 16,1 C 70 % 1011,6 hPa 0,0 l/m 0 min 0 min 237 W/m 16,1 km/h (3 Bft) 97,83 %
03.07.2023 10:12 18,2 C 18,9 C 15,6 C 70 % 1011,4 hPa 0,0 l/m 0 min 0 min 237 W/m 19,3 km/h (3 Bft) 95,74 %
03.07.2023 10:14 18,2 C 18,9 C 15,6 C 68 % 1011,4 hPa 0,0 l/m 0 min 0 min 314 W/m 19,3 km/h (3 Bft) 93,62 %
03.07.2023 10:16 18,2 C 19,4 C 16,1 C 69 % 1011,4 hPa 0,0 l/m 2 min 0 min 591 W/m 19,3 km/h (3 Bft) 95,74 %
03.07.2023 10:18 18,3 C 20,0 C 16,7 C 70 % 1011,4 hPa 0,0 l/m 2 min 0 min 544 W/m 16,1 km/h (3 Bft) 95,74 %
03.07.2023 10:20 18,5 C 20,6 C 17,2 C 69 % 1011,5 hPa 0,0 l/m 2 min 0 min 773 W/m 16,1 km/h (3 Bft) 93,62 %
03.07.2023 10:22 18,7 C 21,1 C 18,3 C 68 % 1011,4 hPa 0,0 l/m 2 min 0 min 920 W/m 22,5 km/h (4 Bft) 95,74 %
03.07.2023 10:24 18,8 C 21,1 C 17,8 C 67 % 1011,4 hPa 0,0 l/m 2 min 0 min 676 W/m 19,3 km/h (3 Bft) 93,48 %
03.07.2023 10:26 18,9 C 20,6 C 17,8 C 68 % 1011,4 hPa 0,0 l/m 2 min 0 min 942 W/m 19,3 km/h (3 Bft) 95,74 %
03.07.2023 10:28 19,1 C 20,6 C 17,8 C 67 % 1011,5 hPa 0,0 l/m 2 min 0 min 569 W/m 16,1 km/h (3 Bft) 95,74 %
03.07.2023 10:30 19,2 C 20,0 C 17,2 C 66 % 1011,5 hPa 0,0 l/m 0 min 0 min 295 W/m 16,1 km/h (3 Bft) 95,74 %
03.07.2023 10:32 19,2 C 19,4 C 16,7 C 65 % 1011,6 hPa 0,0 l/m 0 min 0 min 315 W/m 25,7 km/h (4 Bft) 97,87 %
03.07.2023 10:34 19,1 C 19,4 C 16,7 C 64 % 1011,5 hPa 0,0 l/m 0 min 0 min 326 W/m 29,0 km/h (5 Bft) 97,87 %
03.07.2023 10:36 19,1 C 19,4 C 17,2 C 64 % 1011,6 hPa 0,0 l/m 2 min 0 min 373 W/m 29,0 km/h (5 Bft) 97,87 %
03.07.2023 10:38 19,1 C 20,6 C 18,3 C 64 % 1011,7 hPa 0,0 l/m 2 min 0 min 831 W/m 19,3 km/h (3 Bft) 97,83 %
03.07.2023 10:40 19,2 C 21,1 C 19,4 C 65 % 1011,6 hPa 0,0 l/m 2 min 0 min 875 W/m 19,3 km/h (3 Bft) 95,74 %
03.07.2023 10:42 19,4 C 21,1 C 18,9 C 64 % 1011,7 hPa 0,0 l/m 2 min 0 min 963 W/m 16,1 km/h (3 Bft) 97,87 %
03.07.2023 10:44 19,4 C 20,6 C 17,8 C 63 % 1011,7 hPa 0,0 l/m 2 min 0 min 771 W/m 12,9 km/h (3 Bft) 97,87 %
03.07.2023 10:46 19,4 C 20,0 C 17,2 C 62 % 1011,6 hPa 0,0 l/m 0 min 0 min 303 W/m 16,1 km/h (3 Bft) 97,87 %
03.07.2023 10:48 19,3 C 19,4 C 17,2 C 62 % 1011,6 hPa 0,0 l/m 0 min 0 min 313 W/m 35,4 km/h (5 Bft) 100,00 %
03.07.2023 10:50 19,2 C 19,4 C 16,7 C 63 % 1011,7 hPa 0,0 l/m 2 min 0 min 367 W/m 25,7 km/h (4 Bft) 100,00 %
03.07.2023 10:52 19,2 C 19,4 C 16,7 C 61 % 1011,9 hPa 0,0 l/m 2 min 0 min 402 W/m 25,7 km/h (4 Bft) 100,00 %
03.07.2023 10:54 19,2 C 19,4 C 16,7 C 62 % 1011,7 hPa 0,0 l/m 2 min 0 min 404 W/m 19,3 km/h (3 Bft) 100,00 %
03.07.2023 10:56 19,3 C 20,0 C 16,7 C 62 % 1011,8 hPa 0,0 l/m 2 min 0 min 404 W/m 22,5 km/h (4 Bft) 97,87 %
03.07.2023 10:58 19,3 C 19,4 C 16,7 C 62 % 1011,9 hPa 0,0 l/m 2 min 0 min 415 W/m 25,7 km/h (4 Bft) 100,00 %
03.07.2023 11:00 19,2 C 19,4 C 16,1 C 62 % 1011,9 hPa 0,0 l/m 2 min 0 min 413 W/m 29,0 km/h (5 Bft) 100,00 %
03.07.2023 11:02 19,1 C 18,9 C 16,1 C 62 % 1011,9 hPa 0,0 l/m 2 min 0 min 388 W/m 19,3 km/h (3 Bft) 100,00 %
03.07.2023 11:04 19,1 C 18,9 C 16,1 C 62 % 1011,9 hPa 0,0 l/m 0 min 0 min 359 W/m 16,1 km/h (3 Bft) 100,00 %
03.07.2023 11:06 19,1 C 18,9 C 16,1 C 63 % 1011,8 hPa 0,0 l/m 0 min 0 min 330 W/m 16,1 km/h (3 Bft) 100,00 %
03.07.2023 11:08 19,1 C 19,4 C 16,1 C 64 % 1011,9 hPa 0,0 l/m 0 min 0 min 315 W/m 12,9 km/h (3 Bft) 100,00 %
03.07.2023 11:10 19,1 C 18,9 C 16,1 C 62 % 1011,9 hPa 0,0 l/m 0 min 0 min 357 W/m 16,1 km/h (3 Bft) 100,00 %
03.07.2023 11:12 19,0 C 18,9 C 16,1 C 61 % 1011,9 hPa 0,0 l/m 2 min 0 min 441 W/m 29,0 km/h (5 Bft) 100,00 %
03.07.2023 11:14 19,0 C 18,9 C 15,6 C 62 % 1011,8 hPa 0,0 l/m 2 min 0 min 457 W/m 25,7 km/h (4 Bft) 100,00 %
03.07.2023 11:16 19,0 C 19,4 C 16,1 C 62 % 1012,0 hPa 0,0 l/m 2 min 0 min 415 W/m 19,3 km/h (3 Bft) 100,00 %
03.07.2023 11:18 19,0 C 19,4 C 16,1 C 62 % 1011,9 hPa 0,0 l/m 0 min 0 min 362 W/m 19,3 km/h (3 Bft) 100,00 %
03.07.2023 11:20 19,1 C 19,4 C 16,1 C 63 % 1012,0 hPa 0,0 l/m 2 min 0 min 390 W/m 16,1 km/h (3 Bft) 100,00 %
03.07.2023 11:22 19,1 C 19,4 C 16,1 C 63 % 1012,0 hPa 0,0 l/m 2 min 0 min 458 W/m 16,1 km/h (3 Bft) 97,87 %
03.07.2023 11:24 19,2 C 20,0 C 16,1 C 64 % 1012,0 hPa 0,0 l/m 2 min 0 min 433 W/m 16,1 km/h (3 Bft) 100,00 %
03.07.2023 11:26 19,2 C 20,0 C 16,1 C 63 % 1012,0 hPa 0,0 l/m 2 min 0 min 406 W/m 19,3 km/h (3 Bft) 100,00 %
03.07.2023 11:28 19,2 C 19,4 C 16,1 C 63 % 1012,0 hPa 0,0 l/m 0 min 0 min 368 W/m 22,5 km/h (4 Bft) 100,00 %
03.07.2023 11:30 19,1 C 19,4 C 16,1 C 63 % 1012,0 hPa 0,0 l/m 0 min 0 min 379 W/m 32,2 km/h (5 Bft) 100,00 %
03.07.2023 11:32 19,1 C 19,4 C 16,1 C 63 % 1012,1 hPa 0,0 l/m 0 min 0 min 366 W/m 16,1 km/h (3 Bft) 100,00 %
03.07.2023 11:34 19,1 C 19,4 C 16,1 C 63 % 1012,0 hPa 0,0 l/m 0 min 0 min 368 W/m 19,3 km/h (3 Bft) 100,00 %
03.07.2023 11:36 19,1 C 19,4 C 16,1 C 63 % 1012,0 hPa 0,0 l/m 0 min 0 min 372 W/m 16,1 km/h (3 Bft) 100,00 %
03.07.2023 11:38 19,1 C 19,4 C 16,1 C 62 % 1012,1 hPa 0,0 l/m 0 min 0 min 379 W/m 25,7 km/h (4 Bft) 97,87 %
03.07.2023 11:40 19,1 C 19,4 C 16,1 C 62 % 1012,1 hPa 0,0 l/m 0 min 0 min 386 W/m 38,6 km/h (5 Bft) 100,00 %
03.07.2023 11:42 19,1 C 19,4 C 16,1 C 62 % 1012,1 hPa 0,0 l/m 2 min 0 min 443 W/m 25,7 km/h (4 Bft) 97,87 %
03.07.2023 11:44 19,1 C 19,4 C 16,1 C 62 % 1012,1 hPa 0,0 l/m 2 min 0 min 410 W/m 29,0 km/h (5 Bft) 97,83 %
03.07.2023 11:46 19,1 C 19,4 C 16,1 C 61 % 1012,1 hPa 0,0 l/m 0 min 0 min 370 W/m 19,3 km/h (3 Bft) 95,74 %
03.07.2023 11:48 19,1 C 19,4 C 16,1 C 61 % 1012,2 hPa 0,0 l/m 0 min 0 min 374 W/m 16,1 km/h (3 Bft) 100,00 %
03.07.2023 11:50 19,0 C 18,9 C 16,1 C 62 % 1012,2 hPa 0,0 l/m 0 min 0 min 372 W/m 16,1 km/h (3 Bft) 100,00 %
03.07.2023 11:52 19,0 C 19,4 C 16,1 C 62 % 1012,2 hPa 0,0 l/m 2 min 0 min 432 W/m 32,2 km/h (5 Bft) 100,00 %
03.07.2023 11:54 19,0 C 19,4 C 16,1 C 63 % 1012,2 hPa 0,0 l/m 2 min 0 min 430 W/m 22,5 km/h (4 Bft) 100,00 %
03.07.2023 11:56 19,1 C 20,0 C 16,7 C 63 % 1012,2 hPa 0,0 l/m 2 min 0 min 403 W/m 19,3 km/h (3 Bft) 100,00 %
03.07.2023 11:58 19,2 C 20,6 C 16,7 C 63 % 1012,2 hPa 0,0 l/m 2 min 0 min 454 W/m 16,1 km/h (3 Bft) 100,00 %
03.07.2023 12:00 19,2 C 20,0 C 16,7 C 63 % 1012,2 hPa 0,0 l/m 0 min 0 min 343 W/m 22,5 km/h (4 Bft) 100,00 %
03.07.2023 12:02 19,2 C 19,4 C 16,1 C 61 % 1012,2 hPa 0,0 l/m 0 min 0 min 269 W/m 22,5 km/h (4 Bft) 97,87 %
03.07.2023 12:04 19,1 C 18,9 C 16,1 C 61 % 1012,2 hPa 0,0 l/m 0 min 0 min 275 W/m 32,2 km/h (5 Bft) 100,00 %
03.07.2023 12:10 19,0 C 18,9 C 15,6 C 62 % 1012,2 hPa 0,0 l/m 0 min 0 min 277 W/m 12,9 km/h (3 Bft) 100,00 %
03.07.2023 12:12 19,0 C 18,9 C 16,1 C 62 % 1012,3 hPa 0,0 l/m 0 min 0 min 303 W/m 19,3 km/h (3 Bft) 100,00 %
03.07.2023 12:14 18,9 C 18,9 C 15,6 C 62 % 1012,3 hPa 0,0 l/m 0 min 0 min 280 W/m 12,9 km/h (3 Bft) 100,00 %
03.07.2023 12:16 18,9 C 18,9 C 15,6 C 62 % 1012,3 hPa 0,0 l/m 0 min 0 min 275 W/m 32,2 km/h (5 Bft) 97,83 %
03.07.2023 12:18 18,8 C 18,3 C 15,6 C 60 % 1012,4 hPa 0,0 l/m 0 min 0 min 293 W/m 35,4 km/h (5 Bft) 95,74 %
03.07.2023 12:20 18,7 C 18,9 C 15,6 C 61 % 1012,4 hPa 0,0 l/m 0 min 0 min 321 W/m 19,3 km/h (3 Bft) 95,74 %
03.07.2023 12:22 18,7 C 18,9 C 15,6 C 61 % 1012,5 hPa 0,0 l/m 0 min 0 min 323 W/m 25,7 km/h (4 Bft) 93,62 %
03.07.2023 12:24 18,6 C 18,3 C 15,6 C 62 % 1012,3 hPa 0,0 l/m 0 min 0 min 294 W/m 25,7 km/h (4 Bft) 93,62 %
03.07.2023 12:26 18,6 C 18,9 C 15,6 C 62 % 1012,4 hPa 0,0 l/m 0 min 0 min 299 W/m 16,1 km/h (3 Bft) 95,74 %
03.07.2023 12:28 18,6 C 19,4 C 16,1 C 63 % 1012,3 hPa 0,0 l/m 0 min 0 min 331 W/m 19,3 km/h (3 Bft) 91,49 %
03.07.2023 12:32 18,8 C 21,7 C 20,0 C 63 % 1012,4 hPa 0,0 l/m 4 min 0 min 794 W/m 29,0 km/h (5 Bft) 94,62 %
03.07.2023 12:34 19,1 C 22,8 C 21,1 C 62 % 1012,4 hPa 0,0 l/m 2 min 0 min 962 W/m 32,2 km/h (5 Bft) 95,74 %
03.07.2023 12:36 19,2 C 23,3 C 22,8 C 63 % 1012,3 hPa 0,0 l/m 2 min 0 min 978 W/m 19,3 km/h (3 Bft) 95,74 %
03.07.2023 12:38 19,4 C 23,3 C 22,8 C 62 % 1012,3 hPa 0,0 l/m 2 min 0 min 969 W/m 16,1 km/h (3 Bft) 95,74 %
03.07.2023 12:40 19,6 C 22,2 C 22,2 C 62 % 1012,2 hPa 0,0 l/m 2 min 0 min 969 W/m 25,7 km/h (4 Bft) 91,49 %
03.07.2023 12:42 19,7 C 22,8 C 22,2 C 61 % 1012,3 hPa 0,0 l/m 2 min 0 min 977 W/m 25,7 km/h (4 Bft) 95,65 %
03.07.2023 12:44 19,8 C 22,2 C 21,7 C 61 % 1012,3 hPa 0,0 l/m 2 min 0 min 991 W/m 22,5 km/h (4 Bft) 93,62 %
03.07.2023 12:46 19,8 C 21,1 C 20,0 C 61 % 1012,2 hPa 0,0 l/m 2 min 0 min 553 W/m 22,5 km/h (4 Bft) 91,49 %
03.07.2023 12:48 19,8 C 22,2 C 21,1 C 62 % 1012,2 hPa 0,0 l/m 2 min 0 min 524 W/m 19,3 km/h (3 Bft) 91,49 %
03.07.2023 12:50 19,9 C 22,2 C 20,6 C 62 % 1012,3 hPa 0,0 l/m 2 min 0 min 840 W/m 25,7 km/h (4 Bft) 91,49 %
03.07.2023 12:52 19,9 C 21,1 C 19,4 C 61 % 1012,2 hPa 0,0 l/m 2 min 0 min 616 W/m 22,5 km/h (4 Bft) 95,74 %
03.07.2023 12:54 20,0 C 21,1 C 18,9 C 61 % 1012,2 hPa 0,0 l/m 2 min 0 min 621 W/m 25,7 km/h (4 Bft) 94,23 %
03.07.2023 12:56 19,9 C 20,6 C 18,3 C 62 % 1012,3 hPa 0,0 l/m 2 min 0 min 545 W/m 29,0 km/h (5 Bft) 93,48 %
03.07.2023 12:58 19,9 C 20,6 C 17,8 C 61 % 1012,2 hPa 0,0 l/m 2 min 0 min 464 W/m 19,3 km/h (3 Bft) 95,74 %
03.07.2023 13:00 19,9 C 20,6 C 17,8 C 62 % 1012,2 hPa 0,0 l/m 2 min 0 min 457 W/m 19,3 km/h (3 Bft) 97,87 %
03.07.2023 13:02 19,9 C 20,6 C 17,2 C 62 % 1012,3 hPa 0,0 l/m 2 min 0 min 461 W/m 19,3 km/h (3 Bft) 97,87 %
03.07.2023 13:04 19,9 C 20,6 C 17,2 C 62 % 1012,2 hPa 0,0 l/m 2 min 0 min 447 W/m 19,3 km/h (3 Bft) 97,87 %
03.07.2023 13:06 19,9 C 21,7 C 17,8 C 63 % 1012,2 hPa 0,0 l/m 2 min 0 min 464 W/m 25,7 km/h (4 Bft) 98,28 %
03.07.2023 13:08 20,1 C 22,8 C 18,3 C 63 % 1012,2 hPa 0,0 l/m 2 min 0 min 469 W/m 16,1 km/h (3 Bft) 97,22 %
03.07.2023 13:10 20,2 C 22,8 C 17,8 C 63 % 1012,3 hPa 0,0 l/m 2 min 0 min 469 W/m 22,5 km/h (4 Bft) 97,83 %
03.07.2023 13:12 20,4 C 23,9 C 18,3 C 63 % 1012,1 hPa 0,0 l/m 2 min 0 min 718 W/m 16,1 km/h (3 Bft) 95,74 %
03.07.2023 13:14 20,6 C 23,3 C 18,3 C 63 % 1012,1 hPa 0,0 l/m 2 min 0 min 1078 W/m 12,9 km/h (3 Bft) 97,87 %
03.07.2023 13:16 20,7 C 22,2 C 18,3 C 63 % 1012,1 hPa 0,0 l/m 2 min 0 min 694 W/m 16,1 km/h (3 Bft) 97,87 %
03.07.2023 13:18 20,6 C 22,2 C 18,3 C 62 % 1012,1 hPa 0,0 l/m 2 min 0 min 433 W/m 12,9 km/h (3 Bft) 95,74 %
03.07.2023 13:20 20,6 C 21,1 C 17,8 C 62 % 1012,1 hPa 0,0 l/m 0 min 0 min 415 W/m 64,4 km/h (8 Bft) 93,62 %
03.07.2023 13:22 20,3 C 20,0 C 17,2 C 61 % 1012,2 hPa 0,0 l/m 0 min 0 min 347 W/m 29,0 km/h (5 Bft) 97,83 %
03.07.2023 13:24 20,2 C 19,4 C 16,7 C 62 % 1012,1 hPa 0,0 l/m 0 min 0 min 139 W/m 16,1 km/h (3 Bft) 97,87 %
03.07.2023 13:26 20,0 C 19,4 C 16,7 C 63 % 1012,1 hPa 0,0 l/m 0 min 0 min 98 W/m 25,7 km/h (4 Bft) 97,87 %
03.07.2023 13:28 19,9 C 18,9 C 16,1 C 64 % 1012,2 hPa 0,0 l/m 0 min 0 min 83 W/m 22,5 km/h (4 Bft) 97,87 %
03.07.2023 13:30 19,7 C 18,9 C 16,1 C 64 % 1012,1 hPa 0,0 l/m 0 min 0 min 74 W/m 35,4 km/h (5 Bft) 99,12 %
03.07.2023 13:32 19,5 C 18,3 C 15,6 C 64 % 1012,1 hPa 0,0 l/m 0 min 0 min 65 W/m 16,1 km/h (3 Bft) 96,10 %
03.07.2023 13:34 19,3 C 18,3 C 15,6 C 65 % 1012,1 hPa 0,0 l/m 0 min 0 min 59 W/m 6,4 km/h (2 Bft) 98,51 %
03.07.2023 13:36 19,3 C 18,3 C 15,6 C 65 % 1012,2 hPa 0,0 l/m 0 min 0 min 79 W/m 19,3 km/h (3 Bft) 97,44 %
03.07.2023 13:38 19,2 C 18,3 C 15,6 C 65 % 1012,2 hPa 0,0 l/m 0 min 0 min 92 W/m 12,9 km/h (3 Bft) 97,83 %
03.07.2023 13:40 19,1 C 18,3 C 15,6 C 66 % 1012,2 hPa 0,0 l/m 0 min 0 min 97 W/m 22,5 km/h (4 Bft) 97,87 %
03.07.2023 13:42 19,1 C 18,3 C 15,6 C 66 % 1012,2 hPa 0,0 l/m 0 min 0 min 104 W/m 16,1 km/h (3 Bft) 97,87 %
03.07.2023 13:44 19,0 C 18,3 C 15,6 C 66 % 1012,2 hPa 0,0 l/m 0 min 0 min 116 W/m 29,0 km/h (5 Bft) 97,87 %
03.07.2023 13:46 18,9 C 18,3 C 15,6 C 66 % 1012,2 hPa 0,0 l/m 0 min 0 min 128 W/m 29,0 km/h (5 Bft) 95,74 %
03.07.2023 13:48 18,9 C 18,3 C 15,6 C 67 % 1012,2 hPa 0,0 l/m 0 min 0 min 137 W/m 12,9 km/h (3 Bft) 98,11 %
03.07.2023 13:50 18,8 C 18,3 C 15,6 C 66 % 1012,2 hPa 0,0 l/m 0 min 0 min 140 W/m 22,5 km/h (4 Bft) 97,83 %
03.07.2023 13:52 18,8 C 18,3 C 15,0 C 66 % 1012,2 hPa 0,0 l/m 0 min 0 min 154 W/m 22,5 km/h (4 Bft) 100,00 %
03.07.2023 13:54 18,8 C 18,3 C 15,6 C 67 % 1012,2 hPa 0,0 l/m 0 min 0 min 197 W/m 12,9 km/h (3 Bft) 100,00 %
03.07.2023 13:56 18,8 C 18,9 C 15,6 C 67 % 1012,3 hPa 0,0 l/m 0 min 0 min 261 W/m 16,1 km/h (3 Bft) 100,00 %
03.07.2023 13:58 18,8 C 18,9 C 15,6 C 67 % 1012,2 hPa 0,0 l/m 0 min 0 min 369 W/m 12,9 km/h (3 Bft) 100,00 %
03.07.2023 14:00 18,9 C 19,4 C 16,1 C 68 % 1012,2 hPa 0,0 l/m 2 min 0 min 442 W/m 9,7 km/h (2 Bft) 100,00 %
03.07.2023 14:02 19,1 C 20,6 C 16,1 C 68 % 1012,2 hPa 0,0 l/m 2 min 0 min 525 W/m 16,1 km/h (3 Bft) 95,74 %
03.07.2023 14:04 19,2 C 22,2 C 16,7 C 69 % 1012,1 hPa 0,0 l/m 2 min 0 min 564 W/m 19,3 km/h (3 Bft) 100,00 %
03.07.2023 14:06 19,4 C 23,3 C 17,2 C 68 % 1012,1 hPa 0,0 l/m 2 min 0 min 974 W/m 12,9 km/h (3 Bft) 100,00 %
03.07.2023 14:08 19,6 C 22,8 C 17,2 C 68 % 1012,1 hPa 0,0 l/m 2 min 0 min 854 W/m 16,1 km/h (3 Bft) 97,87 %
03.07.2023 14:10 19,8 C 23,3 C 17,2 C 68 % 1012,1 hPa 0,0 l/m 2 min 0 min 448 W/m 12,9 km/h (3 Bft) 97,87 %
03.07.2023 14:12 19,9 C 24,4 C 17,8 C 68 % 1012,1 hPa 0,0 l/m 2 min 0 min 448 W/m 12,9 km/h (3 Bft) 97,87 %
03.07.2023 14:14 20,1 C 24,4 C 17,8 C 67 % 1012,1 hPa 0,0 l/m 2 min 0 min 663 W/m 16,1 km/h (3 Bft) 100,00 %
03.07.2023 14:16 20,3 C 25,0 C 17,8 C 66 % 1012,1 hPa 0,0 l/m 2 min 0 min 973 W/m 22,5 km/h (4 Bft) 97,87 %
03.07.2023 14:18 20,4 C 23,3 C 17,8 C 66 % 1012,0 hPa 0,0 l/m 2 min 0 min 995 W/m 16,1 km/h (3 Bft) 97,83 %
03.07.2023 14:20 20,4 C 22,8 C 17,8 C 65 % 1012,1 hPa 0,0 l/m 2 min 0 min 799 W/m 12,9 km/h (3 Bft) 95,74 %
03.07.2023 14:22 20,5 C 21,7 C 17,8 C 65 % 1012,0 hPa 0,0 l/m 2 min 0 min 481 W/m 19,3 km/h (3 Bft) 97,87 %
03.07.2023 14:24 20,4 C 21,1 C 17,2 C 65 % 1012,1 hPa 0,0 l/m 0 min 0 min 347 W/m 19,3 km/h (3 Bft) 97,87 %
03.07.2023 14:26 20,4 C 20,6 C 17,2 C 65 % 1012,1 hPa 0,0 l/m 0 min 0 min 306 W/m 19,3 km/h (3 Bft) 95,74 %
03.07.2023 14:28 20,3 C 20,6 C 17,2 C 66 % 1012,1 hPa 0,0 l/m 0 min 0 min 252 W/m 22,5 km/h (4 Bft) 97,87 %
03.07.2023 14:30 20,2 C 20,0 C 16,7 C 64 % 1012,2 hPa 0,0 l/m 0 min 0 min 219 W/m 25,7 km/h (4 Bft) 97,87 %
03.07.2023 14:32 20,1 C 20,0 C 16,7 C 64 % 1012,2 hPa 0,0 l/m 0 min 0 min 231 W/m 22,5 km/h (4 Bft) 95,65 %
03.07.2023 14:34 20,1 C 20,0 C 16,7 C 64 % 1012,1 hPa 0,0 l/m 0 min 0 min 262 W/m 16,1 km/h (3 Bft) 97,87 %
03.07.2023 14:36 20,1 C 20,0 C 16,7 C 64 % 1012,2 hPa 0,0 l/m 0 min 0 min 233 W/m 12,9 km/h (3 Bft) 97,87 %
03.07.2023 14:38 20,1 C 19,4 C 16,7 C 64 % 1012,2 hPa 0,0 l/m 0 min 0 min 218 W/m 16,1 km/h (3 Bft) 95,74 %
03.07.2023 14:40 20,0 C 19,4 C 16,1 C 63 % 1012,2 hPa 0,0 l/m 0 min 0 min 240 W/m 22,5 km/h (4 Bft) 100,00 %
03.07.2023 14:42 19,9 C 19,4 C 16,1 C 63 % 1012,2 hPa 0,0 l/m 0 min 0 min 328 W/m 29,0 km/h (5 Bft) 97,87 %
03.07.2023 14:44 19,9 C 20,6 C 16,1 C 64 % 1012,1 hPa 0,0 l/m 0 min 0 min 392 W/m 16,1 km/h (3 Bft) 95,74 %
03.07.2023 14:46 20,0 C 22,2 C 16,7 C 64 % 1012,1 hPa 0,0 l/m 0 min 0 min 392 W/m 22,5 km/h (4 Bft) 97,83 %
03.07.2023 14:48 20,1 C 22,8 C 16,7 C 63 % 1012,1 hPa 0,0 l/m 2 min 0 min 480 W/m 16,1 km/h (3 Bft) 95,74 %
03.07.2023 14:50 20,3 C 24,4 C 17,2 C 64 % 1012,0 hPa 0,0 l/m 2 min 0 min 898 W/m 12,9 km/h (3 Bft) 93,62 %
03.07.2023 14:52 20,5 C 24,4 C 17,2 C 63 % 1012,0 hPa 0,0 l/m 2 min 0 min 882 W/m 12,9 km/h (3 Bft) 95,74 %
03.07.2023 14:54 20,7 C 24,4 C 17,2 C 61 % 1012,0 hPa 0,0 l/m 2 min 0 min 877 W/m 19,3 km/h (3 Bft) 97,87 %
03.07.2023 14:56 20,9 C 25,0 C 17,2 C 60 % 1012,0 hPa 0,0 l/m 2 min 0 min 874 W/m 12,9 km/h (3 Bft) 95,74 %
03.07.2023 14:58 21,1 C 25,0 C 17,2 C 60 % 1012,0 hPa 0,0 l/m 2 min 0 min 874 W/m 16,1 km/h (3 Bft) 97,83 %
03.07.2023 15:00 21,2 C 25,0 C 17,8 C 60 % 1012,0 hPa 0,0 l/m 2 min 0 min 900 W/m 16,1 km/h (3 Bft) 96,30 %
03.07.2023 15:02 21,3 C 23,3 C 17,8 C 60 % 1011,9 hPa 0,0 l/m 2 min 0 min 491 W/m 12,9 km/h (3 Bft) 93,62 %
03.07.2023 15:04 21,4 C 22,8 C 17,8 C 60 % 1012,0 hPa 0,0 l/m 0 min 0 min 360 W/m 9,7 km/h (2 Bft) 97,87 %
03.07.2023 15:06 21,4 C 22,2 C 17,8 C 59 % 1012,0 hPa 0,0 l/m 0 min 0 min 321 W/m 19,3 km/h (3 Bft) 100,00 %
03.07.2023 15:12 21,4 C 24,4 C 17,8 C 59 % 1011,9 hPa 0,0 l/m 5 min 0 min 897 W/m 16,1 km/h (3 Bft) 96,00 %
03.07.2023 15:14 21,6 C 25,0 C 17,8 C 59 % 1011,8 hPa 0,0 l/m 2 min 0 min 886 W/m 12,9 km/h (3 Bft) 95,74 %
03.07.2023 15:16 21,7 C 25,0 C 17,8 C 58 % 1011,9 hPa 0,0 l/m 2 min 0 min 905 W/m 12,9 km/h (3 Bft) 97,87 %
03.07.2023 15:18 21,7 C 23,3 C 17,8 C 57 % 1011,8 hPa 0,0 l/m 2 min 0 min 930 W/m 22,5 km/h (4 Bft) 95,74 %
03.07.2023 15:20 21,7 C 24,4 C 17,8 C 58 % 1011,9 hPa 0,0 l/m 2 min 0 min 670 W/m 19,3 km/h (3 Bft) 93,62 %
03.07.2023 15:22 21,9 C 25,6 C 18,3 C 57 % 1011,8 hPa 0,0 l/m 2 min 0 min 949 W/m 29,0 km/h (5 Bft) 97,87 %
03.07.2023 15:24 22,0 C 26,1 C 18,3 C 56 % 1011,8 hPa 0,0 l/m 2 min 0 min 964 W/m 19,3 km/h (3 Bft) 97,87 %
03.07.2023 15:26 22,2 C 26,1 C 18,9 C 57 % 1011,8 hPa 0,0 l/m 2 min 0 min 914 W/m 29,0 km/h (5 Bft) 95,65 %
03.07.2023 15:28 22,2 C 23,9 C 18,3 C 55 % 1011,8 hPa 0,0 l/m 2 min 0 min 593 W/m 22,5 km/h (4 Bft) 97,87 %
03.07.2023 15:30 22,1 C 22,8 C 18,3 C 55 % 1011,7 hPa 0,0 l/m 0 min 0 min 331 W/m 16,1 km/h (3 Bft) 100,00 %
03.07.2023 15:32 22,1 C 23,9 C 18,3 C 55 % 1011,8 hPa 0,0 l/m 0 min 0 min 359 W/m 19,3 km/h (3 Bft) 97,87 %
03.07.2023 15:34 22,1 C 22,8 C 18,3 C 55 % 1011,8 hPa 0,0 l/m 0 min 0 min 305 W/m 19,3 km/h (3 Bft) 100,00 %
03.07.2023 15:36 22,0 C 22,2 C 17,8 C 55 % 1011,7 hPa 0,0 l/m 0 min 0 min 332 W/m 16,1 km/h (3 Bft) 97,87 %
03.07.2023 15:38 21,8 C 21,7 C 17,8 C 55 % 1011,7 hPa 0,0 l/m 0 min 0 min 236 W/m 16,1 km/h (3 Bft) 97,83 %
03.07.2023 15:40 21,7 C 21,1 C 17,8 C 55 % 1011,7 hPa 0,0 l/m 0 min 0 min 221 W/m 12,9 km/h (3 Bft) 97,87 %
03.07.2023 15:42 21,7 C 21,1 C 17,8 C 55 % 1011,7 hPa 0,0 l/m 0 min 0 min 259 W/m 16,1 km/h (3 Bft) 100,00 %
03.07.2023 15:44 21,6 C 22,2 C 17,8 C 55 % 1011,8 hPa 0,0 l/m 0 min 0 min 354 W/m 16,1 km/h (3 Bft) 95,74 %
03.07.2023 15:46 21,6 C 23,9 C 17,8 C 55 % 1011,7 hPa 0,0 l/m 2 min 0 min 694 W/m 19,3 km/h (3 Bft) 100,00 %
03.07.2023 15:48 21,8 C 24,4 C 18,3 C 55 % 1011,7 hPa 0,0 l/m 2 min 0 min 963 W/m 19,3 km/h (3 Bft) 100,00 %
03.07.2023 15:50 22,0 C 23,3 C 18,3 C 55 % 1011,7 hPa 0,0 l/m 2 min 0 min 690 W/m 12,9 km/h (3 Bft) 97,87 %
03.07.2023 15:52 22,0 C 22,8 C 18,3 C 54 % 1011,7 hPa 0,0 l/m 0 min 0 min 265 W/m 19,3 km/h (3 Bft) 95,65 %
03.07.2023 15:54 21,9 C 22,2 C 18,3 C 55 % 1011,7 hPa 0,0 l/m 0 min 0 min 260 W/m 16,1 km/h (3 Bft) 100,00 %
03.07.2023 15:56 21,9 C 22,2 C 18,3 C 55 % 1011,8 hPa 0,0 l/m 0 min 0 min 280 W/m 16,1 km/h (3 Bft) 97,87 %
03.07.2023 15:58 21,8 C 21,7 C 17,8 C 53 % 1011,7 hPa 0,0 l/m 0 min 0 min 313 W/m 25,7 km/h (4 Bft) 97,87 %
03.07.2023 16:00 21,8 C 21,7 C 17,8 C 54 % 1011,8 hPa 0,0 l/m 0 min 0 min 338 W/m 22,5 km/h (4 Bft) 100,00 %
03.07.2023 16:02 21,7 C 22,2 C 17,8 C 54 % 1011,8 hPa 0,0 l/m 2 min 0 min 415 W/m 29,0 km/h (5 Bft) 97,87 %
03.07.2023 16:04 21,7 C 22,2 C 18,3 C 54 % 1011,8 hPa 0,0 l/m 2 min 0 min 468 W/m 25,7 km/h (4 Bft) 97,92 %
03.07.2023 16:06 21,7 C 22,2 C 18,3 C 54 % 1011,7 hPa 0,0 l/m 2 min 0 min 400 W/m 22,5 km/h (4 Bft) 100,00 %
03.07.2023 16:08 21,7 C 22,2 C 18,3 C 55 % 1011,7 hPa 0,0 l/m 2 min 0 min 399 W/m 16,1 km/h (3 Bft) 97,14 %
03.07.2023 16:10 21,7 C 23,3 C 18,3 C 55 % 1011,7 hPa 0,0 l/m 2 min 0 min 392 W/m 22,5 km/h (4 Bft) 100,00 %
03.07.2023 16:12 21,8 C 24,4 C 18,3 C 55 % 1011,6 hPa 0,0 l/m 2 min 0 min 392 W/m 12,9 km/h (3 Bft) 97,87 %
03.07.2023 16:14 21,9 C 25,0 C 18,3 C 54 % 1011,6 hPa 0,0 l/m 2 min 0 min 802 W/m 19,3 km/h (3 Bft) 97,87 %
03.07.2023 16:16 22,1 C 23,9 C 18,3 C 54 % 1011,6 hPa 0,0 l/m 2 min 0 min 539 W/m 19,3 km/h (3 Bft) 97,87 %
03.07.2023 16:18 22,1 C 23,9 C 18,3 C 54 % 1011,6 hPa 0,0 l/m 2 min 0 min 726 W/m 16,1 km/h (3 Bft) 98,28 %
03.07.2023 16:20 22,1 C 24,4 C 18,3 C 54 % 1011,5 hPa 0,0 l/m 0 min 0 min 347 W/m 16,1 km/h (3 Bft) 97,14 %
03.07.2023 16:22 22,2 C 25,0 C 18,3 C 55 % 1011,5 hPa 0,0 l/m 2 min 0 min 846 W/m 19,3 km/h (3 Bft) 95,74 %
03.07.2023 16:24 22,3 C 25,0 C 18,3 C 54 % 1011,5 hPa 0,0 l/m 2 min 0 min 771 W/m 16,1 km/h (3 Bft) 97,87 %
03.07.2023 16:26 22,4 C 23,9 C 18,9 C 53 % 1011,5 hPa 0,0 l/m 2 min 0 min 558 W/m 19,3 km/h (3 Bft) 91,49 %
03.07.2023 16:28 22,4 C 22,8 C 18,3 C 53 % 1011,5 hPa 0,0 l/m 0 min 0 min 320 W/m 19,3 km/h (3 Bft) 96,61 %
03.07.2023 16:30 22,3 C 23,3 C 18,3 C 52 % 1011,4 hPa 0,0 l/m 0 min 0 min 330 W/m 19,3 km/h (3 Bft) 91,43 %
03.07.2023 16:32 22,3 C 22,8 C 18,3 C 53 % 1011,4 hPa 0,0 l/m 2 min 0 min 447 W/m 25,7 km/h (4 Bft) 93,62 %
03.07.2023 16:34 22,2 C 22,8 C 18,3 C 53 % 1011,4 hPa 0,0 l/m 0 min 0 min 324 W/m 19,3 km/h (3 Bft) 93,48 %
03.07.2023 16:36 22,2 C 22,8 C 18,3 C 53 % 1011,4 hPa 0,0 l/m 2 min 0 min 430 W/m 22,5 km/h (4 Bft) 95,74 %
03.07.2023 16:38 22,2 C 22,8 C 18,3 C 54 % 1011,3 hPa 0,0 l/m 2 min 0 min 408 W/m 16,1 km/h (3 Bft) 93,62 %
03.07.2023 16:40 22,1 C 22,8 C 18,3 C 53 % 1011,4 hPa 0,0 l/m 0 min 0 min 339 W/m 16,1 km/h (3 Bft) 95,74 %
03.07.2023 16:42 22,1 C 23,3 C 18,3 C 54 % 1011,4 hPa 0,0 l/m 2 min 0 min 411 W/m 22,5 km/h (4 Bft) 93,62 %
03.07.2023 16:44 22,1 C 23,9 C 18,3 C 54 % 1011,4 hPa 0,0 l/m 2 min 0 min 846 W/m 22,5 km/h (4 Bft) 91,49 %
03.07.2023 16:46 22,2 C 23,3 C 18,3 C 54 % 1011,5 hPa 0,0 l/m 2 min 0 min 760 W/m 19,3 km/h (3 Bft) 93,48 %
03.07.2023 16:48 22,2 C 22,8 C 18,3 C 53 % 1011,4 hPa 0,0 l/m 0 min 0 min 268 W/m 22,5 km/h (4 Bft) 95,74 %
03.07.2023 16:50 22,2 C 22,2 C 18,3 C 53 % 1011,4 hPa 0,0 l/m 0 min 0 min 283 W/m 16,1 km/h (3 Bft) 93,62 %
03.07.2023 16:52 22,2 C 22,8 C 18,3 C 54 % 1011,4 hPa 0,0 l/m 2 min 0 min 378 W/m 16,1 km/h (3 Bft) 95,74 %
03.07.2023 16:54 22,2 C 24,4 C 18,3 C 55 % 1011,3 hPa 0,0 l/m 2 min 0 min 742 W/m 12,9 km/h (3 Bft) 95,74 %
03.07.2023 16:56 22,3 C 24,4 C 18,9 C 56 % 1011,3 hPa 0,0 l/m 2 min 0 min 674 W/m 19,3 km/h (3 Bft) 95,74 %
03.07.2023 16:58 22,5 C 23,9 C 18,9 C 55 % 1011,4 hPa 0,0 l/m 2 min 0 min 664 W/m 16,1 km/h (3 Bft) 97,87 %
03.07.2023 17:00 22,4 C 23,3 C 18,9 C 54 % 1011,2 hPa 0,0 l/m 2 min 0 min 405 W/m 32,2 km/h (5 Bft) 97,83 %
03.07.2023 17:02 22,4 C 23,3 C 18,9 C 55 % 1011,3 hPa 0,0 l/m 0 min 0 min 293 W/m 16,1 km/h (3 Bft) 93,62 %
03.07.2023 17:04 22,5 C 23,3 C 18,9 C 54 % 1011,3 hPa 0,0 l/m 0 min 0 min 292 W/m 12,9 km/h (3 Bft) 97,87 %
03.07.2023 17:06 22,4 C 22,8 C 18,3 C 55 % 1011,3 hPa 0,0 l/m 0 min 0 min 280 W/m 12,9 km/h (3 Bft) 93,33 %
03.07.2023 17:08 22,4 C 22,8 C 18,9 C 55 % 1011,2 hPa 0,0 l/m 0 min 0 min 246 W/m 12,9 km/h (3 Bft) 100,00 %
03.07.2023 17:10 22,4 C 22,8 C 18,3 C 54 % 1011,2 hPa 0,0 l/m 0 min 0 min 247 W/m 12,9 km/h (3 Bft) 100,00 %
03.07.2023 17:12 22,3 C 22,2 C 18,3 C 55 % 1011,2 hPa 0,0 l/m 0 min 0 min 262 W/m 29,0 km/h (5 Bft) 95,74 %
03.07.2023 17:14 22,2 C 22,2 C 18,3 C 54 % 1011,3 hPa 0,0 l/m 0 min 0 min 289 W/m 19,3 km/h (3 Bft) 95,65 %
03.07.2023 17:16 22,2 C 22,2 C 18,3 C 54 % 1011,2 hPa 0,0 l/m 0 min 0 min 291 W/m 19,3 km/h (3 Bft) 97,87 %
03.07.2023 17:18 22,1 C 22,8 C 18,3 C 54 % 1011,2 hPa 0,0 l/m 2 min 0 min 334 W/m 16,1 km/h (3 Bft) 95,74 %
03.07.2023 17:20 22,1 C 23,9 C 18,3 C 54 % 1011,1 hPa 0,0 l/m 2 min 0 min 652 W/m 25,7 km/h (4 Bft) 95,74 %
03.07.2023 17:22 22,2 C 25,0 C 18,3 C 55 % 1011,1 hPa 0,0 l/m 2 min 0 min 603 W/m 12,9 km/h (3 Bft) 93,62 %
03.07.2023 17:24 22,3 C 25,0 C 18,9 C 55 % 1011,1 hPa 0,0 l/m 2 min 0 min 591 W/m 16,1 km/h (3 Bft) 97,87 %
03.07.2023 17:26 22,4 C 23,3 C 18,3 C 54 % 1011,2 hPa 0,0 l/m 2 min 0 min 530 W/m 25,7 km/h (4 Bft) 95,65 %
03.07.2023 17:28 22,4 C 22,8 C 18,3 C 53 % 1011,2 hPa 0,0 l/m 0 min 0 min 170 W/m 19,3 km/h (3 Bft) 97,87 %
03.07.2023 17:30 22,4 C 22,2 C 18,3 C 54 % 1011,1 hPa 0,0 l/m 0 min 0 min 165 W/m 19,3 km/h (3 Bft) 97,87 %
03.07.2023 17:32 22,3 C 21,7 C 18,3 C 54 % 1011,1 hPa 0,0 l/m 0 min 0 min 173 W/m 16,1 km/h (3 Bft) 93,62 %
03.07.2023 17:34 22,2 C 21,7 C 17,8 C 54 % 1011,1 hPa 0,0 l/m 0 min 0 min 208 W/m 12,9 km/h (3 Bft) 97,87 %
03.07.2023 17:36 22,1 C 22,8 C 18,3 C 54 % 1011,1 hPa 0,0 l/m 2 min 0 min 421 W/m 19,3 km/h (3 Bft) 100,00 %
03.07.2023 17:38 22,2 C 23,9 C 18,3 C 55 % 1011,2 hPa 0,0 l/m 2 min 0 min 627 W/m 16,1 km/h (3 Bft) 97,87 %
03.07.2023 17:40 22,3 C 23,9 C 18,3 C 54 % 1011,1 hPa 0,0 l/m 2 min 0 min 571 W/m 19,3 km/h (3 Bft) 95,65 %
03.07.2023 17:42 22,3 C 23,9 C 18,3 C 53 % 1011,1 hPa 0,0 l/m 0 min 0 min 276 W/m 19,3 km/h (3 Bft) 97,87 %
03.07.2023 17:44 22,3 C 23,9 C 18,3 C 54 % 1011,1 hPa 0,0 l/m 2 min 0 min 606 W/m 16,1 km/h (3 Bft) 95,74 %
03.07.2023 17:46 22,4 C 23,9 C 18,9 C 54 % 1011,1 hPa 0,0 l/m 2 min 0 min 584 W/m 16,1 km/h (3 Bft) 97,87 %
03.07.2023 17:48 22,4 C 23,3 C 18,9 C 53 % 1011,0 hPa 0,0 l/m 2 min 0 min 527 W/m 16,1 km/h (3 Bft) 97,87 %
03.07.2023 17:50 22,4 C 23,9 C 18,3 C 53 % 1011,1 hPa 0,0 l/m 2 min 0 min 521 W/m 16,1 km/h (3 Bft) 95,74 %
03.07.2023 17:52 22,4 C 23,3 C 18,3 C 53 % 1011,2 hPa 0,0 l/m 2 min 0 min 410 W/m 29,0 km/h (5 Bft) 97,83 %
03.07.2023 17:54 22,4 C 23,3 C 18,3 C 53 % 1011,1 hPa 0,0 l/m 0 min 0 min 260 W/m 12,9 km/h (3 Bft) 97,87 %
03.07.2023 17:56 22,4 C 23,3 C 18,3 C 53 % 1011,2 hPa 0,0 l/m 0 min 0 min 262 W/m 22,5 km/h (4 Bft) 91,49 %
03.07.2023 17:58 22,4 C 23,3 C 18,3 C 53 % 1011,1 hPa 0,0 l/m 0 min 0 min 262 W/m 16,1 km/h (3 Bft) 95,74 %
03.07.2023 18:00 22,3 C 22,8 C 18,3 C 53 % 1011,2 hPa 0,0 l/m 0 min 0 min 217 W/m 22,5 km/h (4 Bft) 100,00 %
03.07.2023 18:02 22,2 C 22,2 C 18,3 C 53 % 1011,2 hPa 0,0 l/m 0 min 0 min 214 W/m 16,1 km/h (3 Bft) 95,74 %
03.07.2023 18:04 22,1 C 21,7 C 17,8 C 54 % 1011,2 hPa 0,0 l/m 0 min 0 min 178 W/m 19,3 km/h (3 Bft) 100,00 %
03.07.2023 18:07 21,9 C 21,7 C 17,8 C 54 % 1011,1 hPa 0,0 l/m 0 min 0 min 171 W/m 12,9 km/h (3 Bft) 100,00 %
03.07.2023 18:08 21,9 C 21,1 C 17,8 C 54 % 1011,1 hPa 0,0 l/m 0 min 0 min 160 W/m 12,9 km/h (3 Bft) 98,95 %
03.07.2023 18:12 21,8 C 21,1 C 17,8 C 55 % 1011,1 hPa 0,0 l/m 0 min 0 min 197 W/m 12,9 km/h (3 Bft) 98,21 %
03.07.2023 18:16 21,8 C 21,7 C 17,8 C 55 % 1011,0 hPa 0,0 l/m 0 min 0 min 195 W/m 25,7 km/h (4 Bft) 98,97 %
03.07.2023 18:18 21,8 C 22,2 C 17,8 C 55 % 1011,0 hPa 0,0 l/m 0 min 0 min 202 W/m 22,5 km/h (4 Bft) 97,83 %
03.07.2023 18:20 21,8 C 23,3 C 18,3 C 55 % 1011,0 hPa 0,0 l/m 0 min 0 min 219 W/m 16,1 km/h (3 Bft) 100,00 %
03.07.2023 18:22 21,9 C 23,3 C 18,3 C 54 % 1011,1 hPa 0,0 l/m 2 min 0 min 278 W/m 22,5 km/h (4 Bft) 100,00 %
03.07.2023 18:24 22,0 C 23,3 C 18,3 C 55 % 1011,0 hPa 0,0 l/m 2 min 0 min 268 W/m 25,7 km/h (4 Bft) 97,87 %
03.07.2023 18:26 22,1 C 23,3 C 18,3 C 55 % 1011,1 hPa 0,0 l/m 0 min 0 min 220 W/m 22,5 km/h (4 Bft) 97,87 %
03.07.2023 18:28 22,1 C 23,9 C 18,3 C 55 % 1011,0 hPa 0,0 l/m 2 min 0 min 410 W/m 32,2 km/h (5 Bft) 97,87 %
03.07.2023 18:30 22,2 C 22,8 C 18,3 C 55 % 1011,0 hPa 0,0 l/m 2 min 0 min 288 W/m 19,3 km/h (3 Bft) 95,74 %
03.07.2023 18:32 22,1 C 22,2 C 18,3 C 54 % 1011,1 hPa 0,0 l/m 0 min 0 min 155 W/m 16,1 km/h (3 Bft) 97,83 %
03.07.2023 18:34 22,1 C 21,7 C 17,8 C 54 % 1011,0 hPa 0,0 l/m 0 min 0 min 139 W/m 19,3 km/h (3 Bft) 95,74 %
03.07.2023 18:36 22,0 C 21,7 C 17,8 C 55 % 1011,0 hPa 0,0 l/m 0 min 0 min 129 W/m 12,9 km/h (3 Bft) 93,62 %
03.07.2023 18:38 21,9 C 21,1 C 17,8 C 55 % 1011,0 hPa 0,0 l/m 0 min 0 min 127 W/m 16,1 km/h (3 Bft) 97,87 %
03.07.2023 18:40 21,8 C 21,1 C 17,8 C 55 % 1011,0 hPa 0,0 l/m 0 min 0 min 132 W/m 12,9 km/h (3 Bft) 97,87 %
03.07.2023 18:42 21,8 C 21,1 C 17,8 C 56 % 1011,1 hPa 0,0 l/m 0 min 0 min 153 W/m 16,1 km/h (3 Bft) 95,74 %
03.07.2023 18:44 21,8 C 21,1 C 17,8 C 55 % 1011,0 hPa 0,0 l/m 0 min 0 min 164 W/m 29,0 km/h (5 Bft) 95,65 %
03.07.2023 18:46 21,8 C 21,1 C 17,8 C 56 % 1011,0 hPa 0,0 l/m 0 min 0 min 158 W/m 19,3 km/h (3 Bft) 97,87 %
03.07.2023 18:48 21,7 C 21,7 C 17,8 C 55 % 1011,1 hPa 0,0 l/m 2 min 0 min 213 W/m 16,1 km/h (3 Bft) 95,74 %
03.07.2023 18:50 21,8 C 22,8 C 17,8 C 55 % 1011,1 hPa 0,0 l/m 2 min 0 min 278 W/m 16,1 km/h (3 Bft) 95,74 %
03.07.2023 18:52 21,8 C 22,8 C 17,8 C 56 % 1011,0 hPa 0,0 l/m 2 min 0 min 278 W/m 19,3 km/h (3 Bft) 97,87 %
03.07.2023 18:54 21,8 C 22,8 C 17,8 C 55 % 1011,0 hPa 0,0 l/m 2 min 0 min 325 W/m 29,0 km/h (5 Bft) 95,74 %
03.07.2023 18:56 21,8 C 22,2 C 17,8 C 55 % 1011,0 hPa 0,0 l/m 0 min 0 min 195 W/m 16,1 km/h (3 Bft) 97,87 %
03.07.2023 18:58 21,8 C 21,1 C 17,8 C 55 % 1011,0 hPa 0,0 l/m 0 min 0 min 123 W/m 16,1 km/h (3 Bft) 97,83 %
03.07.2023 19:00 21,7 C 21,1 C 17,2 C 54 % 1011,1 hPa 0,0 l/m 0 min 0 min 122 W/m 19,3 km/h (3 Bft) 95,74 %
03.07.2023 19:02 21,6 C 20,6 C 17,2 C 55 % 1011,0 hPa 0,0 l/m 0 min 0 min 123 W/m 22,5 km/h (4 Bft) 100,00 %
03.07.2023 19:04 21,5 C 20,6 C 17,2 C 55 % 1010,9 hPa 0,0 l/m 0 min 0 min 113 W/m 12,9 km/h (3 Bft) 100,00 %
03.07.2023 19:06 21,4 C 20,6 C 17,2 C 56 % 1011,0 hPa 0,0 l/m 0 min 0 min 119 W/m 12,9 km/h (3 Bft) 97,87 %
03.07.2023 19:08 21,4 C 20,6 C 17,2 C 56 % 1011,1 hPa 0,0 l/m 0 min 0 min 127 W/m 12,9 km/h (3 Bft) 100,00 %
03.07.2023 19:10 21,4 C 20,6 C 17,2 C 56 % 1011,0 hPa 0,0 l/m 0 min 0 min 127 W/m 12,9 km/h (3 Bft) 100,00 %
03.07.2023 19:12 21,3 C 21,1 C 17,2 C 56 % 1011,0 hPa 0,0 l/m 0 min 0 min 150 W/m 19,3 km/h (3 Bft) 100,00 %
03.07.2023 19:14 21,3 C 22,2 C 17,2 C 56 % 1010,9 hPa 0,0 l/m 2 min 0 min 273 W/m 22,5 km/h (4 Bft) 100,00 %
03.07.2023 19:16 21,4 C 22,2 C 17,2 C 56 % 1010,9 hPa 0,0 l/m 2 min 0 min 269 W/m 16,1 km/h (3 Bft) 100,00 %
03.07.2023 19:18 21,4 C 22,2 C 17,2 C 56 % 1010,9 hPa 0,0 l/m 2 min 0 min 176 W/m 12,9 km/h (3 Bft) 100,00 %
03.07.2023 19:20 21,5 C 22,2 C 17,2 C 57 % 1011,0 hPa 0,0 l/m 0 min 0 min 152 W/m 12,9 km/h (3 Bft) 100,00 %
03.07.2023 19:22 21,5 C 22,2 C 17,2 C 57 % 1010,9 hPa 0,0 l/m 2 min 0 min 206 W/m 9,7 km/h (2 Bft) 100,00 %
03.07.2023 19:24 21,5 C 21,1 C 17,2 C 57 % 1010,9 hPa 0,0 l/m 0 min 0 min 150 W/m 25,7 km/h (4 Bft) 100,00 %
03.07.2023 19:26 21,4 C 21,1 C 17,2 C 56 % 1010,9 hPa 0,0 l/m 0 min 0 min 97 W/m 16,1 km/h (3 Bft) 100,00 %
03.07.2023 19:28 21,4 C 22,2 C 17,2 C 56 % 1010,9 hPa 0,0 l/m 2 min 0 min 235 W/m 22,5 km/h (4 Bft) 97,83 %
03.07.2023 19:30 21,4 C 22,2 C 17,2 C 56 % 1010,7 hPa 0,0 l/m 2 min 0 min 244 W/m 22,5 km/h (4 Bft) 100,00 %
03.07.2023 19:32 21,4 C 22,2 C 17,2 C 56 % 1010,8 hPa 0,0 l/m 2 min 0 min 242 W/m 19,3 km/h (3 Bft) 100,00 %
03.07.2023 19:34 21,4 C 22,2 C 17,2 C 56 % 1010,8 hPa 0,0 l/m 2 min 0 min 233 W/m 16,1 km/h (3 Bft) 100,00 %
03.07.2023 19:36 21,4 C 21,7 C 17,2 C 56 % 1010,8 hPa 0,0 l/m 2 min 0 min 224 W/m 19,3 km/h (3 Bft) 97,87 %
03.07.2023 19:38 21,4 C 22,2 C 17,2 C 56 % 1010,8 hPa 0,0 l/m 2 min 0 min 229 W/m 16,1 km/h (3 Bft) 100,00 %
03.07.2023 19:40 21,4 C 21,7 C 17,2 C 56 % 1010,8 hPa 0,0 l/m 2 min 0 min 191 W/m 16,1 km/h (3 Bft) 100,00 %
03.07.2023 19:42 21,4 C 21,1 C 17,2 C 56 % 1010,8 hPa 0,0 l/m 0 min 0 min 121 W/m 12,9 km/h (3 Bft) 97,87 %
03.07.2023 19:44 21,4 C 21,1 C 17,2 C 57 % 1010,8 hPa 0,0 l/m 2 min 0 min 203 W/m 19,3 km/h (3 Bft) 97,87 %
03.07.2023 19:46 21,4 C 21,1 C 17,2 C 57 % 1010,8 hPa 0,0 l/m 2 min 0 min 204 W/m 12,9 km/h (3 Bft) 97,67 %
03.07.2023 19:48 21,4 C 21,1 C 17,2 C 56 % 1010,8 hPa 0,0 l/m 2 min 0 min 200 W/m 16,1 km/h (3 Bft) 97,87 %
03.07.2023 19:50 21,4 C 21,1 C 17,2 C 57 % 1010,8 hPa 0,0 l/m 2 min 0 min 194 W/m 12,9 km/h (3 Bft) 95,74 %
03.07.2023 19:52 21,4 C 21,1 C 17,2 C 57 % 1010,7 hPa 0,0 l/m 2 min 0 min 187 W/m 12,9 km/h (3 Bft) 95,74 %
03.07.2023 19:54 21,4 C 21,1 C 17,2 C 57 % 1010,7 hPa 0,0 l/m 2 min 0 min 181 W/m 9,7 km/h (2 Bft) 95,65 %
03.07.2023 19:56 21,3 C 20,6 C 17,2 C 56 % 1010,7 hPa 0,0 l/m 2 min 0 min 177 W/m 35,4 km/h (5 Bft) 95,74 %
03.07.2023 19:58 21,3 C 20,6 C 17,2 C 56 % 1010,7 hPa 0,0 l/m 2 min 0 min 173 W/m 19,3 km/h (3 Bft) 93,62 %
03.07.2023 20:00 21,3 C 20,6 C 17,2 C 56 % 1010,7 hPa 0,0 l/m 2 min 0 min 153 W/m 16,1 km/h (3 Bft) 95,74 %
03.07.2023 20:02 21,2 C 20,6 C 17,2 C 56 % 1010,7 hPa 0,0 l/m 0 min 0 min 115 W/m 19,3 km/h (3 Bft) 95,74 %
03.07.2023 20:04 21,2 C 20,6 C 17,2 C 57 % 1010,7 hPa 0,0 l/m 0 min 0 min 90 W/m 16,1 km/h (3 Bft) 95,92 %
03.07.2023 20:06 21,2 C 20,6 C 16,7 C 57 % 1010,7 hPa 0,0 l/m 0 min 0 min 85 W/m 12,9 km/h (3 Bft) 96,55 %
03.07.2023 20:08 21,1 C 20,6 C 16,7 C 57 % 1010,7 hPa 0,0 l/m 0 min 0 min 80 W/m 12,9 km/h (3 Bft) 94,29 %
03.07.2023 20:10 21,1 C 20,6 C 16,7 C 57 % 1010,7 hPa 0,0 l/m 0 min 0 min 79 W/m 12,9 km/h (3 Bft) 95,74 %
03.07.2023 20:12 21,1 C 20,6 C 16,7 C 57 % 1010,6 hPa 0,0 l/m 0 min 0 min 82 W/m 16,1 km/h (3 Bft) 95,74 %
03.07.2023 20:14 21,1 C 20,6 C 16,7 C 57 % 1010,7 hPa 0,0 l/m 0 min 0 min 80 W/m 12,9 km/h (3 Bft) 91,49 %
03.07.2023 20:16 21,1 C 20,6 C 16,7 C 57 % 1010,7 hPa 0,0 l/m 0 min 0 min 76 W/m 12,9 km/h (3 Bft) 95,74 %
03.07.2023 20:18 21,1 C 20,0 C 16,7 C 57 % 1010,7 hPa 0,0 l/m 0 min 0 min 76 W/m 19,3 km/h (3 Bft) 95,74 %
03.07.2023 20:20 21,0 C 20,0 C 16,7 C 58 % 1010,7 hPa 0,0 l/m 0 min 0 min 69 W/m 12,9 km/h (3 Bft) 93,62 %
03.07.2023 20:22 20,9 C 20,0 C 16,7 C 58 % 1010,7 hPa 0,0 l/m 0 min 0 min 60 W/m 16,1 km/h (3 Bft) 95,74 %
03.07.2023 20:24 20,9 C 20,0 C 16,7 C 58 % 1010,7 hPa 0,0 l/m 0 min 0 min 62 W/m 9,7 km/h (2 Bft) 95,65 %
03.07.2023 20:26 20,8 C 20,0 C 16,7 C 59 % 1010,7 hPa 0,0 l/m 0 min 0 min 75 W/m 12,9 km/h (3 Bft) 95,74 %
03.07.2023 20:28 20,8 C 20,0 C 16,7 C 58 % 1010,7 hPa 0,0 l/m 0 min 0 min 73 W/m 12,9 km/h (3 Bft) 91,49 %
03.07.2023 20:30 20,8 C 20,0 C 16,7 C 58 % 1010,7 hPa 0,0 l/m 0 min 0 min 68 W/m 16,1 km/h (3 Bft) 93,62 %
03.07.2023 20:32 20,8 C 20,6 C 16,7 C 59 % 1010,8 hPa 0,0 l/m 0 min 0 min 66 W/m 9,7 km/h (2 Bft) 93,62 %
03.07.2023 20:34 20,8 C 20,0 C 16,7 C 59 % 1010,7 hPa 0,0 l/m 0 min 0 min 54 W/m 19,3 km/h (3 Bft) 95,74 %
03.07.2023 20:36 20,9 C 20,6 C 16,7 C 58 % 1010,7 hPa 0,0 l/m 0 min 0 min 49 W/m 22,5 km/h (4 Bft) 97,87 %
03.07.2023 20:38 20,9 C 20,0 C 16,7 C 58 % 1010,7 hPa 0,0 l/m 0 min 0 min 47 W/m 16,1 km/h (3 Bft) 97,83 %
03.07.2023 20:40 20,9 C 20,0 C 16,7 C 58 % 1010,8 hPa 0,0 l/m 0 min 0 min 46 W/m 12,9 km/h (3 Bft) 93,62 %
03.07.2023 20:42 20,9 C 20,6 C 16,7 C 58 % 1010,8 hPa 0,0 l/m 0 min 0 min 37 W/m 12,9 km/h (3 Bft) 91,49 %
03.07.2023 20:44 20,9 C 20,0 C 16,7 C 58 % 1010,8 hPa 0,0 l/m 0 min 0 min 36 W/m 16,1 km/h (3 Bft) 97,87 %
03.07.2023 20:46 20,8 C 20,0 C 16,7 C 59 % 1010,7 hPa 0,0 l/m 0 min 0 min 35 W/m 12,9 km/h (3 Bft) 97,87 %
03.07.2023 20:48 20,8 C 20,0 C 16,7 C 59 % 1010,8 hPa 0,0 l/m 0 min 0 min 37 W/m 6,4 km/h (2 Bft) 97,87 %
03.07.2023 20:50 20,8 C 20,0 C 16,7 C 58 % 1010,8 hPa 0,0 l/m 0 min 0 min 34 W/m 16,1 km/h (3 Bft) 95,74 %
03.07.2023 20:52 20,7 C 20,0 C 16,7 C 59 % 1010,8 hPa 0,0 l/m 0 min 0 min 30 W/m 6,4 km/h (2 Bft) 95,65 %
03.07.2023 20:54 20,7 C 20,0 C 16,7 C 59 % 1010,8 hPa 0,0 l/m 0 min 0 min 25 W/m 12,9 km/h (3 Bft) 97,87 %
03.07.2023 20:56 20,7 C 20,0 C 16,7 C 59 % 1010,8 hPa 0,0 l/m 0 min 0 min 20 W/m 9,7 km/h (2 Bft) 97,87 %
03.07.2023 20:58 20,7 C 20,0 C 16,7 C 59 % 1010,7 hPa 0,0 l/m 0 min 0 min 20 W/m 12,9 km/h (3 Bft) 97,87 %
03.07.2023 21:00 20,7 C 20,0 C 16,7 C 59 % 1010,7 hPa 0,0 l/m 0 min 0 min 21 W/m 16,1 km/h (3 Bft) 97,87 %
03.07.2023 21:02 20,7 C 20,0 C 16,7 C 59 % 1010,7 hPa 0,0 l/m 0 min 0 min 22 W/m 6,4 km/h (2 Bft) 100,00 %
03.07.2023 21:04 20,6 C 20,0 C 16,7 C 59 % 1010,8 hPa 0,0 l/m 0 min 0 min 23 W/m 12,9 km/h (3 Bft) 97,96 %
03.07.2023 21:06 20,6 C 20,0 C 16,1 C 59 % 1010,7 hPa 0,0 l/m 0 min 0 min 21 W/m 16,1 km/h (3 Bft) 100,00 %
03.07.2023 21:08 20,6 C 20,0 C 16,7 C 59 % 1010,7 hPa 0,0 l/m 0 min 0 min 21 W/m 19,3 km/h (3 Bft) 100,00 %
03.07.2023 21:10 20,6 C 20,0 C 16,1 C 59 % 1010,7 hPa 0,0 l/m 0 min 0 min 21 W/m 12,9 km/h (3 Bft) 100,00 %
03.07.2023 21:12 20,5 C 19,4 C 16,1 C 59 % 1010,7 hPa 0,0 l/m 0 min 0 min 22 W/m 16,1 km/h (3 Bft) 100,00 %
03.07.2023 21:14 20,5 C 19,4 C 16,1 C 59 % 1010,6 hPa 0,0 l/m 0 min 0 min 21 W/m 12,9 km/h (3 Bft) 100,00 %
03.07.2023 21:16 20,5 C 19,4 C 16,1 C 60 % 1010,6 hPa 0,0 l/m 0 min 0 min 18 W/m 16,1 km/h (3 Bft) 100,00 %
03.07.2023 21:18 20,5 C 19,4 C 16,1 C 59 % 1010,6 hPa 0,0 l/m 0 min 0 min 16 W/m 19,3 km/h (3 Bft) 100,00 %
03.07.2023 21:20 20,4 C 19,4 C 16,1 C 59 % 1010,6 hPa 0,0 l/m 0 min 0 min 15 W/m 16,1 km/h (3 Bft) 100,00 %
03.07.2023 21:22 20,4 C 19,4 C 16,1 C 59 % 1010,6 hPa 0,0 l/m 0 min 0 min 15 W/m 16,1 km/h (3 Bft) 100,00 %
03.07.2023 21:24 20,4 C 19,4 C 16,1 C 59 % 1010,6 hPa 0,0 l/m 0 min 0 min 14 W/m 12,9 km/h (3 Bft) 100,00 %
03.07.2023 21:26 20,4 C 19,4 C 16,1 C 59 % 1010,6 hPa 0,0 l/m 0 min 0 min 13 W/m 6,4 km/h (2 Bft) 97,87 %
03.07.2023 21:28 20,4 C 19,4 C 16,1 C 59 % 1010,5 hPa 0,0 l/m 0 min 0 min 14 W/m 12,9 km/h (3 Bft) 100,00 %
03.07.2023 21:30 20,4 C 19,4 C 16,1 C 59 % 1010,6 hPa 0,0 l/m 0 min 0 min 12 W/m 16,1 km/h (3 Bft) 100,00 %
03.07.2023 21:32 20,3 C 19,4 C 16,1 C 59 % 1010,7 hPa 0,0 l/m 0 min 0 min 11 W/m 19,3 km/h (3 Bft) 97,83 %
03.07.2023 21:34 20,3 C 19,4 C 16,1 C 60 % 1010,7 hPa 0,0 l/m 0 min 0 min 10 W/m 6,4 km/h (2 Bft) 100,00 %
03.07.2023 21:36 20,3 C 19,4 C 16,1 C 60 % 1010,6 hPa 0,0 l/m 0 min 0 min 9 W/m 9,7 km/h (2 Bft) 100,00 %
03.07.2023 21:38 20,2 C 19,4 C 16,1 C 60 % 1010,6 hPa 0,0 l/m 0 min 0 min 8 W/m 6,4 km/h (2 Bft) 100,00 %
03.07.2023 21:40 20,2 C 18,9 C 16,1 C 60 % 1010,6 hPa 0,0 l/m 0 min 0 min 6 W/m 16,1 km/h (3 Bft) 100,00 %
03.07.2023 21:42 20,2 C 18,9 C 16,1 C 60 % 1010,6 hPa 0,0 l/m 0 min 0 min 5 W/m 9,7 km/h (2 Bft) 100,00 %
03.07.2023 21:44 20,1 C 18,9 C 15,6 C 60 % 1010,7 hPa 0,0 l/m 0 min 0 min 5 W/m 9,7 km/h (2 Bft) 100,00 %
03.07.2023 21:46 20,1 C 18,9 C 15,6 C 60 % 1010,7 hPa 0,0 l/m 0 min 0 min 1 W/m 6,4 km/h (2 Bft) 98,00 %
03.07.2023 21:48 20,0 C 18,9 C 15,6 C 60 % 1010,7 hPa 0,0 l/m 0 min 0 min 0 W/m 9,7 km/h (2 Bft) 97,83 %
03.07.2023 21:50 20,0 C 18,9 C 15,6 C 61 % 1010,8 hPa 0,0 l/m 0 min 0 min 0 W/m 12,9 km/h (3 Bft) 97,96 %
03.07.2023 21:52 20,0 C 18,9 C 15,6 C 61 % 1010,8 hPa 0,0 l/m 0 min 0 min 0 W/m 9,7 km/h (2 Bft) 100,00 %
03.07.2023 21:54 19,9 C 18,9 C 15,6 C 61 % 1010,9 hPa 0,0 l/m 0 min 0 min 0 W/m 6,4 km/h (2 Bft) 100,00 %
03.07.2023 21:56 19,9 C 18,9 C 15,6 C 61 % 1010,9 hPa 0,0 l/m 0 min 0 min 0 W/m 12,9 km/h (3 Bft) 97,87 %
03.07.2023 21:58 19,8 C 18,9 C 15,6 C 61 % 1010,9 hPa 0,0 l/m 0 min 0 min 0 W/m 16,1 km/h (3 Bft) 100,00 %
03.07.2023 22:00 19,8 C 18,9 C 15,6 C 61 % 1010,9 hPa 0,0 l/m 0 min 0 min 0 W/m 16,1 km/h (3 Bft) 97,87 %
03.07.2023 22:02 19,7 C 18,9 C 15,6 C 61 % 1011,0 hPa 0,0 l/m 0 min 0 min 0 W/m 29,0 km/h (5 Bft) 100,00 %
03.07.2023 22:04 19,7 C 18,9 C 15,6 C 61 % 1010,9 hPa 0,0 l/m 0 min 0 min 0 W/m 16,1 km/h (3 Bft) 97,87 %
03.07.2023 22:06 19,7 C 18,9 C 15,6 C 61 % 1011,0 hPa 0,0 l/m 0 min 0 min 0 W/m 16,1 km/h (3 Bft) 100,00 %
03.07.2023 22:08 19,7 C 18,9 C 15,6 C 61 % 1011,0 hPa 0,0 l/m 0 min 0 min 0 W/m 12,9 km/h (3 Bft) 100,00 %
03.07.2023 22:10 19,6 C 18,9 C 15,6 C 61 % 1010,9 hPa 0,0 l/m 0 min 0 min 0 W/m 16,1 km/h (3 Bft) 100,00 %
03.07.2023 22:12 19,6 C 18,9 C 15,6 C 61 % 1011,0 hPa 0,0 l/m 0 min 0 min 0 W/m 19,3 km/h (3 Bft) 95,74 %
03.07.2023 22:14 19,6 C 18,9 C 15,6 C 62 % 1011,1 hPa 0,0 l/m 0 min 0 min 0 W/m 12,9 km/h (3 Bft) 100,00 %
03.07.2023 22:16 19,5 C 18,9 C 15,6 C 62 % 1011,2 hPa 0,0 l/m 0 min 0 min 0 W/m 22,5 km/h (4 Bft) 100,00 %
03.07.2023 22:18 19,4 C 18,3 C 15,0 C 62 % 1011,2 hPa 0,0 l/m 0 min 0 min 0 W/m 12,9 km/h (3 Bft) 100,00 %
03.07.2023 22:20 19,4 C 18,3 C 15,6 C 61 % 1011,2 hPa 0,0 l/m 0 min 0 min 0 W/m 16,1 km/h (3 Bft) 97,83 %
03.07.2023 22:22 19,4 C 18,3 C 15,0 C 61 % 1011,2 hPa 0,0 l/m 0 min 0 min 0 W/m 19,3 km/h (3 Bft) 100,00 %
03.07.2023 22:24 19,3 C 18,3 C 15,0 C 61 % 1011,3 hPa 0,0 l/m 0 min 0 min 0 W/m 12,9 km/h (3 Bft) 100,00 %
03.07.2023 22:26 19,3 C 18,3 C 15,0 C 61 % 1011,3 hPa 0,0 l/m 0 min 0 min 0 W/m 22,5 km/h (4 Bft) 95,74 %
03.07.2023 22:28 19,2 C 18,3 C 15,0 C 61 % 1011,3 hPa 0,0 l/m 0 min 0 min 0 W/m 19,3 km/h (3 Bft) 97,87 %
03.07.2023 22:30 19,2 C 18,3 C 15,0 C 61 % 1011,3 hPa 0,0 l/m 0 min 0 min 0 W/m 22,5 km/h (4 Bft) 97,87 %
03.07.2023 22:32 19,1 C 18,3 C 15,0 C 61 % 1011,3 hPa 0,0 l/m 0 min 0 min 0 W/m 22,5 km/h (4 Bft) 95,74 %
03.07.2023 22:34 19,1 C 18,3 C 15,0 C 61 % 1011,3 hPa 0,0 l/m 0 min 0 min 0 W/m 29,0 km/h (5 Bft) 95,65 %
03.07.2023 22:36 19,1 C 18,3 C 15,0 C 61 % 1011,3 hPa 0,0 l/m 0 min 0 min 0 W/m 25,7 km/h (4 Bft) 93,62 %
03.07.2023 22:38 19,1 C 18,3 C 15,0 C 61 % 1011,4 hPa 0,0 l/m 0 min 0 min 0 W/m 25,7 km/h (4 Bft) 95,74 %
03.07.2023 22:40 19,0 C 18,3 C 15,0 C 61 % 1011,4 hPa 0,0 l/m 0 min 0 min 0 W/m 22,5 km/h (4 Bft) 93,62 %
03.07.2023 22:42 19,0 C 18,3 C 15,0 C 61 % 1011,4 hPa 0,0 l/m 0 min 0 min 0 W/m 41,8 km/h (6 Bft) 94,34 %
03.07.2023 22:44 18,9 C 17,8 C 15,0 C 61 % 1011,4 hPa 0,0 l/m 0 min 0 min 0 W/m 12,9 km/h (3 Bft) 95,83 %
03.07.2023 22:46 18,9 C 17,8 C 14,4 C 61 % 1011,5 hPa 0,0 l/m 0 min 0 min 0 W/m 16,1 km/h (3 Bft) 93,48 %
03.07.2023 22:48 18,8 C 17,8 C 14,4 C 61 % 1011,5 hPa 0,0 l/m 0 min 0 min 0 W/m 19,3 km/h (3 Bft) 89,36 %
03.07.2023 22:50 18,8 C 17,8 C 14,4 C 61 % 1011,5 hPa 0,0 l/m 0 min 0 min 0 W/m 22,5 km/h (4 Bft) 91,49 %
03.07.2023 22:52 18,8 C 17,8 C 14,4 C 61 % 1011,5 hPa 0,0 l/m 0 min 0 min 0 W/m 22,5 km/h (4 Bft) 93,62 %
03.07.2023 22:54 18,8 C 17,8 C 14,4 C 61 % 1011,5 hPa 0,0 l/m 0 min 0 min 0 W/m 16,1 km/h (3 Bft) 93,62 %
03.07.2023 22:56 18,7 C 17,8 C 14,4 C 61 % 1011,5 hPa 0,0 l/m 0 min 0 min 0 W/m 12,9 km/h (3 Bft) 93,62 %
03.07.2023 22:58 18,7 C 17,8 C 14,4 C 62 % 1011,5 hPa 0,0 l/m 0 min 0 min 0 W/m 12,9 km/h (3 Bft) 95,00 %
03.07.2023 23:00 18,6 C 17,8 C 14,4 C 62 % 1011,6 hPa 0,0 l/m 0 min 0 min 0 W/m 19,3 km/h (3 Bft) 93,62 %
03.07.2023 23:02 18,6 C 17,8 C 14,4 C 62 % 1011,6 hPa 0,0 l/m 0 min 0 min 0 W/m 12,9 km/h (3 Bft) 95,65 %
03.07.2023 23:04 18,5 C 17,8 C 14,4 C 62 % 1011,6 hPa 0,0 l/m 0 min 0 min 0 W/m 19,3 km/h (3 Bft) 95,83 %
03.07.2023 23:06 18,5 C 17,2 C 14,4 C 62 % 1011,6 hPa 0,0 l/m 0 min 0 min 0 W/m 12,9 km/h (3 Bft) 94,92 %
03.07.2023 23:08 18,4 C 17,2 C 14,4 C 62 % 1011,6 hPa 0,0 l/m 0 min 0 min 0 W/m 19,3 km/h (3 Bft) 97,14 %
03.07.2023 23:10 18,4 C 17,8 C 14,4 C 62 % 1011,6 hPa 0,0 l/m 0 min 0 min 0 W/m 19,3 km/h (3 Bft) 93,62 %
03.07.2023 23:12 18,4 C 17,8 C 14,4 C 63 % 1011,6 hPa 0,0 l/m 0 min 0 min 0 W/m 19,3 km/h (3 Bft) 95,74 %
03.07.2023 23:14 18,4 C 17,8 C 14,4 C 62 % 1011,6 hPa 0,0 l/m 0 min 0 min 0 W/m 19,3 km/h (3 Bft) 95,74 %
03.07.2023 23:16 18,4 C 17,8 C 14,4 C 63 % 1011,6 hPa 0,0 l/m 0 min 0 min 0 W/m 12,9 km/h (3 Bft) 93,62 %
03.07.2023 23:18 18,4 C 17,8 C 14,4 C 63 % 1011,5 hPa 0,0 l/m 0 min 0 min 0 W/m 16,1 km/h (3 Bft) 95,65 %
03.07.2023 23:20 18,3 C 17,2 C 14,4 C 63 % 1011,6 hPa 0,0 l/m 0 min 0 min 0 W/m 16,1 km/h (3 Bft) 95,74 %
03.07.2023 23:22 18,3 C 17,2 C 14,4 C 63 % 1011,6 hPa 0,0 l/m 0 min 0 min 0 W/m 12,9 km/h (3 Bft) 95,74 %
03.07.2023 23:24 18,3 C 17,8 C 14,4 C 63 % 1011,6 hPa 0,0 l/m 0 min 0 min 0 W/m 16,1 km/h (3 Bft) 97,87 %
03.07.2023 23:26 18,3 C 17,8 C 14,4 C 63 % 1011,6 hPa 0,0 l/m 0 min 0 min 0 W/m 22,5 km/h (4 Bft) 95,74 %
03.07.2023 23:28 18,3 C 17,8 C 14,4 C 63 % 1011,6 hPa 0,0 l/m 0 min 0 min 0 W/m 19,3 km/h (3 Bft) 97,87 %
03.07.2023 23:30 18,3 C 17,8 C 14,4 C 63 % 1011,5 hPa 0,0 l/m 0 min 0 min 0 W/m 12,9 km/h (3 Bft) 95,74 %
03.07.2023 23:32 18,3 C 17,8 C 14,4 C 63 % 1011,5 hPa 0,0 l/m 0 min 0 min 0 W/m 29,0 km/h (5 Bft) 97,83 %
03.07.2023 23:34 18,3 C 17,8 C 14,4 C 63 % 1011,5 hPa 0,0 l/m 0 min 0 min 0 W/m 16,1 km/h (3 Bft) 97,87 %
03.07.2023 23:36 18,3 C 17,8 C 14,4 C 63 % 1011,4 hPa 0,0 l/m 0 min 0 min 0 W/m 22,5 km/h (4 Bft) 100,00 %
03.07.2023 23:38 18,3 C 17,8 C 14,4 C 63 % 1011,5 hPa 0,0 l/m 0 min 0 min 0 W/m 32,2 km/h (5 Bft) 100,00 %
03.07.2023 23:40 18,3 C 17,2 C 13,9 C 63 % 1011,5 hPa 0,0 l/m 0 min 0 min 0 W/m 19,3 km/h (3 Bft) 100,00 %
03.07.2023 23:42 18,3 C 17,2 C 13,9 C 63 % 1011,6 hPa 0,0 l/m 0 min 0 min 0 W/m 19,3 km/h (3 Bft) 100,00 %
03.07.2023 23:44 18,3 C 17,2 C 13,9 C 64 % 1011,5 hPa 0,0 l/m 0 min 0 min 0 W/m 19,3 km/h (3 Bft) 100,00 %
03.07.2023 23:46 18,3 C 17,2 C 13,9 C 64 % 1011,5 hPa 0,0 l/m 0 min 0 min 0 W/m 19,3 km/h (3 Bft) 100,00 %
03.07.2023 23:48 18,2 C 17,2 C 13,9 C 64 % 1011,5 hPa 0,0 l/m 0 min 0 min 0 W/m 19,3 km/h (3 Bft) 100,00 %
03.07.2023 23:50 18,2 C 17,2 C 13,9 C 64 % 1011,6 hPa 0,0 l/m 0 min 0 min 0 W/m 19,3 km/h (3 Bft) 97,87 %
03.07.2023 23:52 18,2 C 17,2 C 13,9 C 64 % 1011,6 hPa 0,0 l/m 0 min 0 min 0 W/m 22,5 km/h (4 Bft) 100,00 %
03.07.2023 23:54 18,1 C 17,2 C 13,9 C 64 % 1011,6 hPa 0,0 l/m 0 min 0 min 0 W/m 19,3 km/h (3 Bft) 100,00 %
03.07.2023 23:56 18,1 C 17,2 C 13,9 C 65 % 1011,6 hPa 0,0 l/m 0 min 0 min 0 W/m 12,9 km/h (3 Bft) 100,00 %
03.07.2023 23:58 18,1 C 17,2 C 13,9 C 65 % 1011,6 hPa 0,0 l/m 0 min 0 min 0 W/m 19,3 km/h (3 Bft) 100,00 %
_ Min-Zeit 03:58 02:12 03:42 16:30 05:58 - - - - 01:18 04:56
Minimum _ 14,3 C 13,9 C 10,6 C 52 % 1010,5 hPa - - - - 3,2 km/h (1 Bft) 89,13 %
_ Max-Zeit 16:58 15:24 12:36 07:06 12:22 00:00 15:12 00:00 13:14 13:20 00:42
Maximum _ 22,5 C 26,1 C 22,8 C 84 % 1012,5 hPa 0,0 l/m 5 min 0 min 1078 W/m 64,4 km/h
S-SO (8 Bft)
100,00 %
Durchschnitt _ 18,3 C 18,5 C 14,9 C 67 % 1011,3 hPa #0,0 l/m #6:43 h #0 min. 315 W/m 16,6 km/h (3 Bft) 97,40 %
© 2023 W. Hausmann